[{"header": {"dx": 0.06612293990616946, "dy": 0.0552356325346848, "nx": 98, "ny": 59, "la1": 35.046912555036876, "la2": 31.78801023549047, "lo1": -121.43107172385933, "lo2": -114.95102361305473, "refTime": "2026041608", "parameterCategory": 1, "parameterNumber": 2}, "data": [8.96, 8.96, 8.73, 8.8, 9.18, 8.83, 8.74, 9.09, 8.65, 8.68, 7.95, 6.94, 6.2, 3.14, 0.0, 0.0, -2.28, -4.15, -6.97, -8.85, -10.12, -10.37, -9.3, -8.94, -7.9, -5.2, -2.93, 0.0, 0.0, 2.37, 5.6, 9.17, 11.2, 10.96, 10.28, 9.83, 9.39, 9.39, 9.39, 10.2, 9.76, 10.75, 11.18, 10.8, 11.5, 13.49, 17.47, 17.35, 11.99, 8.31, 7.1, 8.85, 10.01, 10.39, 11.06, 11.06, 11.58, 12.52, 12.5, 12.56, 12.27, 12.09, 11.03, 10.12, 10.36, 10.63, 11.44, 11.76, 12.79, 13.8, 13.54, 13.51, 13.27, 11.06, 11.06, 11.06, 11.93, 12.62, 13.43, 13.99, -11.9, -11.99, -12.96, -11.2, -10.8, -11.28, -11.71, -7.9, 10.0, 10.38, 11.87, 11.99, 12.17, 12.74, 13.39, 13.2, 12.71, 12.88, 8.96, 8.96, 8.73, 8.8, 8.87, 8.74, 8.93, 8.86, 8.83, 8.99, 8.78, 8.87, 7.78, 8.85, 11.6, 8.53, 0.0, -2.93, -7.24, -7.44, -9.48, -9.17, -10.37, -10.79, -7.59, -7.9, -6.45, -3.82, 0.0, 0.0, 2.81, 6.2, 10.41, 9.83, 8.05, 8.94, 8.05, 8.94, 9.34, 10.04, 11.72, 11.64, 10.37, 9.85, 12.39, 15.39, 17.69, 11.28, 12.39, 5.81, 8.57, 9.12, 10.01, 10.75, 10.17, 10.47, 11.58, 11.68, 12.5, 12.13, 12.27, 11.93, 10.12, 9.8, 9.8, 10.3, 10.99, 10.99, 12.05, 13.39, 14.18, 13.71, 14.07, 10.75, 9.73, 10.43, 12.27, 12.62, 13.43, 13.99, -11.9, -11.99, -12.96, -11.2, -10.8, -11.28, -11.71, -7.9, 10.0, 10.38, 11.87, 11.99, 12.17, 12.74, 13.39, 13.2, 12.71, 12.88, 8.46, 8.46, 8.46, 8.52, 8.8, 9.18, 8.83, 9.28, 8.61, 9.11, 8.45, 6.84, 8.1, 8.53, 10.4, 11.03, 8.22, 0.0, -4.48, -6.67, -6.97, -8.85, -8.85, -8.38, -9.8, -10.18, -10.73, -9.6, -3.53, -2.82, 0.0, 0.0, 3.47, 10.0, 8.49, 8.94, 8.43, 8.77, 9.49, 10.58, 10.04, 10.18, 11.7, 12.87, 13.51, 13.97, 10.91, 13.15, 7.32, 9.89, 9.89, 10.75, 10.75, 10.01, 9.8, 10.75, 11.3, 12.16, 12.13, 12.56, 12.27, 10.63, 9.8, 9.27, 9.8, 10.12, 10.87, 11.94, 11.88, 12.57, 13.26, 13.8, 13.74, 12.65, 10.43, 12.0, 13.59, 13.59, 13.49, 14.4, 6.4, -11.16, -12.3, -12.07, -11.62, -11.62, -11.18, -10.0, 7.9, 10.87, 12.56, 12.74, 11.93, 11.93, 12.79, 13.41, 12.79, 12.39, 8.46, 8.46, 8.46, 8.52, 8.8, 8.87, 8.74, 9.17, 9.02, 8.36, 7.69, 6.77, 6.63, 7.26, 6.97, 8.22, 8.22, 8.53, 0.0, -6.21, -6.98, -6.98, -7.9, -7.42, -8.53, -10.79, -9.75, -9.83, -6.95, -2.71, -1.71, -1.72, -2.21, 0.0, 6.94, 8.58, 8.82, 9.32, 8.68, 9.92, 11.49, 12.72, 12.33, 10.75, 9.9, 11.38, 13.86, 10.86, 11.1, 11.8, 11.1, 11.54, 10.43, 9.6, 9.71, 10.43, 11.52, 11.93, 12.27, 12.6, 11.93, 11.17, 10.12, 9.27, 8.78, 9.44, 10.57, 10.65, 12.33, 13.41, 14.13, 13.49, 13.99, 12.9, 13.28, 13.86, 14.75, 15.07, 14.58, 13.44, 13.15, -0.0, -12.96, -11.62, -11.18, -11.4, -12.07, 0.0, 7.9, 11.35, 12.65, 11.93, 10.94, 11.5, 12.3, 10.73, 12.3, 12.42, 8.46, 8.46, 8.46, 8.52, 8.52, 8.8, 9.18, 9.07, 8.68, 8.51, 7.6, 6.94, 6.4, 5.2, 5.75, 4.32, 6.97, 6.97, 6.97, -2.37, -9.17, -8.85, -8.22, -8.93, -8.07, -9.42, -10.41, -8.53, 0.0, 0.0, 0.0, -1.11, -2.82, -1.9, 1.58, 6.4, 6.8, 9.13, 9.31, 10.25, 11.06, 10.52, 11.16, 12.87, 13.79, 13.77, 13.07, 12.5, 12.27, 12.16, 11.8, 10.86, 10.12, 9.6, 10.43, 11.64, 12.65, 12.95, 12.74, 12.36, 11.72, 9.8, 7.95, 8.68, 8.85, 10.59, 11.43, 10.59, 12.43, 14.71, 16.37, 15.47, 15.64, 14.85, 13.99, 12.96, 13.15, 14.03, 13.86, 13.25, 12.96, 12.96, -11.45, -11.18, -11.18, -11.03, 10.8, 9.97, 10.59, 12.29, 12.07, 10.79, 8.85, -0.0, -0.0, 11.99, 12.96, 12.52, 8.46, 8.46, 8.46, 8.25, 8.52, 8.8, 8.87, 9.26, 8.59, 8.43, 7.29, 6.16, 6.4, 5.98, 5.0, 4.15, 4.15, 6.97, 6.98, 1.91, -6.16, -8.53, -10.18, -10.3, -8.85, -8.53, -6.7, -4.48, 0.0, 0.0, 1.93, 0.0, 0.0, -0.76, 0.75, 2.55, 4.51, 7.9, 9.31, 8.29, 7.51, 10.12, 12.66, 14.07, 14.26, 14.69, 13.7, 12.5, 11.44, 12.13, 12.39, 11.28, 10.52, 10.12, 11.2, 12.9, 12.9, 12.9, 13.43, 12.79, 11.53, 7.79, 6.6, 8.16, 9.47, 10.76, 11.73, 11.06, 12.01, 15.94, 18.88, 17.58, 14.97, 15.76, 16.2, 15.69, 13.41, 11.12, 12.79, 12.9, 12.07, 0.0, -6.71, -9.97, -8.22, 0.0, 6.7, 10.99, 12.27, 11.17, 9.76, 9.48, 13.41, -7.78, -0.0, 13.41, 12.83, 12.44, 8.46, 8.46, 8.96, 8.74, 8.52, 8.52, 8.58, 9.18, 9.01, 8.43, 7.19, 5.67, 6.16, 7.9, 8.53, 5.95, 5.0, 5.2, 6.16, 5.92, 0.0, -7.36, -9.4, -8.01, -7.51, -6.16, -4.72, -3.82, -2.72, -1.18, 0.0, 2.39, 3.65, 2.28, 1.7, 1.83, 3.44, 7.44, 8.22, 6.31, 6.21, 7.19, 10.12, 12.16, 15.04, 13.59, 11.38, 12.16, 11.09, 12.98, 13.15, 12.03, 11.64, 12.0, 12.13, 12.39, 12.79, 13.07, 13.28, 12.39, 10.91, 6.65, 6.8, 7.82, 9.17, 10.33, 12.01, 12.11, 12.52, 15.99, 19.09, 18.08, 15.19, 15.29, 15.83, 16.2, 14.79, 13.41, 13.41, 13.41, 11.46, 1.91, -1.71, -3.82, 0.0, 2.45, 6.64, 10.12, 11.57, 10.59, 8.59, 0.0, -10.73, -11.99, 13.41, 12.04, 11.72, 11.45, 8.25, 8.25, 8.74, 8.74, 8.74, 9.01, 9.06, 9.12, 9.01, 8.58, 7.19, 5.23, 6.16, 8.22, 9.66, 8.58, 8.22, 7.73, 7.56, 8.22, 9.58, 9.3, -5.4, -7.79, -7.13, -4.48, -3.47, -4.48, -4.72, -3.92, -1.58, 0.0, 2.19, 4.8, 4.62, 3.29, 2.95, 5.0, 8.15, 7.26, 7.9, 7.24, 7.82, 9.8, 6.6, -0.0, 6.16, 12.22, 12.27, 13.15, 11.2, 11.16, 11.28, 11.28, 11.75, 11.75, 12.11, 12.66, 12.45, 11.85, 9.27, 6.0, 6.8, 7.76, 9.35, 12.01, 13.92, 14.3, 14.6, 15.34, 17.64, 17.86, 15.93, 15.62, 15.17, 14.73, 14.11, 12.8, 12.39, 14.18, 13.86, 8.24, 1.09, 0.0, 2.24, 5.16, 7.2, 8.91, 9.69, 9.17, 0.0, -12.04, -12.45, -13.86, 9.48, 11.2, 10.8, 10.88, 8.25, 8.74, 8.74, 8.74, 8.74, 9.01, 8.78, 9.12, 9.17, 8.28, 7.16, 5.17, 5.27, 4.65, 6.4, 7.73, 7.73, 7.85, 8.22, 8.73, 10.84, 11.62, 11.62, 0.0, -5.72, -5.08, -3.11, -5.21, -6.2, -4.36, -1.07, 0.0, 0.0, 2.37, 3.82, 3.82, 3.77, 3.77, 5.2, 11.18, 12.52, 8.85, 8.85, 13.41, -0.0, -0.0, 5.09, 12.01, 12.36, 12.37, 12.27, 9.96, 10.91, 11.28, 11.09, 12.11, 12.11, 12.04, 11.62, 11.03, 9.62, 8.43, 6.8, 7.0, 8.93, 12.9, 15.59, 15.41, 14.75, 14.75, 16.09, 16.54, 16.54, 15.62, 14.73, 14.27, 13.86, 12.94, 13.32, 15.12, 15.12, 12.94, 3.1, 1.25, 3.29, 5.18, 6.67, 8.54, 8.85, 5.8, -12.58, -12.04, -12.96, -4.24, 8.05, 10.41, 9.86, 10.48, 8.52, 8.74, 8.48, 8.74, 8.74, 8.74, 8.78, 8.83, 8.64, 8.43, 7.8, 6.68, 5.8, 4.28, 3.81, 3.96, 5.36, 4.99, 4.24, 2.71, 2.95, 5.0, 9.08, 8.22, 0.0, -5.0, -4.88, -6.2, -6.67, -3.34, 0.0, 0.0, 0.0, 0.0, 0.0, 3.19, 5.95, 5.36, 11.62, -0.0, 12.07, 0.0, 0.0, -11.62, -0.0, -0.0, 4.24, 6.4, 9.39, 10.02, 10.43, 10.43, 10.86, 10.52, 11.75, 12.5, 12.87, 11.64, 11.0, 11.87, 11.33, 7.4, 6.87, 7.98, 10.3, 14.19, 15.99, 14.94, 13.86, 13.57, 14.4, 15.49, 15.82, 15.85, 15.41, 13.62, 12.82, 11.11, 11.86, 14.22, 15.2, 16.46, 9.92, 0.0, 2.28, 4.24, 7.13, 9.8, 9.48, -12.96, -12.96, -12.52, -8.85, 0.0, 6.67, 9.62, 10.01, 10.19, 8.52, 8.52, 8.48, 8.48, 8.74, 8.74, 8.78, 8.33, 8.37, 8.68, 7.76, 7.76, 7.59, 6.66, 4.81, 3.46, 4.66, 4.34, 3.27, 2.53, 1.83, 1.11, 2.64, 3.96, 0.0, -9.6, -4.6, -5.9, -4.4, -2.24, 0.0, 0.93, 0.0, -1.62, -1.76, 1.28, 5.2, 8.22, 11.62, 12.52, 0.0, 0.0, 0.0, 12.07, -0.0, -0.0, -0.0, 5.6, 7.78, 8.38, 10.43, 11.38, 13.1, 13.65, 14.39, 15.84, 16.27, 13.86, 9.83, 12.72, 8.65, 5.65, 7.4, 7.2, 7.2, 10.73, 15.99, 16.34, 15.2, 11.2, 12.11, 13.39, 15.07, 15.36, 14.51, 12.8, 10.95, 10.0, 12.56, 14.19, 14.75, 15.65, 15.97, 0.0, 0.0, 6.6, 10.75, 15.2, 10.12, 13.41, -3.96, -3.04, -4.65, 0.0, 5.4, 8.44, 9.76, 9.17, 8.52, 8.52, 8.48, 8.48, 8.94, 9.2, 8.97, 8.77, 9.04, 8.81, 8.43, 8.43, 8.24, 8.18, 7.6, 6.36, 4.95, 4.65, 4.07, 3.07, 1.58, 0.0, -1.58, 0.0, -9.48, -12.52, -12.07, 8.49, -7.59, -3.98, -4.15, -5.95, -10.18, -10.28, -2.02, -1.76, -3.39, -9.67, -8.22, -3.82, -3.96, -5.4, 11.62, -0.0, -3.39, -2.02, -0.0, 6.94, 9.17, 11.53, 13.28, 15.36, 17.81, 19.34, 18.65, 18.76, 20.03, 18.78, 11.84, 4.38, 2.22, 5.8, 6.12, 3.9, 3.16, 8.6, 14.85, 18.0, 18.49, 16.99, 14.18, 12.39, 13.19, 13.84, 11.8, 10.18, 10.92, 13.19, 13.02, 13.68, 15.47, 16.09, 16.93, 17.88, 18.78, 19.22, 17.43, 14.42, 13.19, 13.86, 0.0, -5.2, -4.32, 0.0, 4.93, 7.78, 8.3, 9.17, 8.52, 8.27, 8.27, 8.48, 8.94, 9.2, 8.97, 9.0, 8.77, 8.79, 9.09, 8.68, 8.68, 8.58, 9.38, 8.78, 8.37, 7.54, 6.9, 5.86, 6.4, 9.22, 9.12, 4.66, 0.0, -13.86, -12.72, -7.78, -7.54, -9.83, -11.02, -11.18, -10.52, -9.2, -10.28, -10.08, -9.75, -10.38, -8.94, -8.94, -11.03, -11.03, -7.9, -4.4, -5.7, -3.39, -0.0, 8.53, 12.96, 13.41, 12.52, 13.15, 13.28, 14.42, 16.66, 18.08, 20.12, 22.62, 16.09, -3.82, -2.28, 3.59, 3.78, -0.0, -0.0, 4.36, 10.0, 15.37, 16.0, 17.7, 19.17, 20.72, 14.11, 11.03, 9.21, 10.79, 13.99, 15.27, 15.27, 16.05, 16.09, 16.54, 15.83, 16.35, 16.88, 18.78, 19.67, 17.88, 16.09, 14.3, 13.15, 5.2, 0.0, 0.0, 4.93, 7.19, 9.17, 11.99, 8.52, 8.27, 8.48, 8.48, 8.94, 8.94, 8.97, 8.74, 9.0, 9.04, 8.81, 9.09, 8.68, 8.97, 9.42, 9.17, 9.48, 9.48, 9.97, 9.8, 11.57, 13.35, 13.99, 13.48, 11.17, 0.0, -12.39, -13.67, -12.33, -12.14, -10.73, -10.73, -11.18, -9.83, -9.54, -9.54, -9.83, -9.2, -9.2, -10.41, -10.73, -9.2, -8.93, -5.7, -5.46, -4.6, -6.64, 11.18, 11.62, 8.85, 8.85, 8.53, 9.66, 8.53, 10.41, 10.73, 15.18, 19.22, 21.46, -0.0, -7.13, -3.07, -0.0, -0.0, -0.0, -0.0, 6.47, 9.66, 13.4, 14.84, 14.22, 13.96, 17.78, 10.08, 10.6, 13.48, 15.69, 17.1, 16.99, 16.99, 16.48, 14.18, 13.99, 13.84, 15.65, 16.54, 17.88, 17.97, 17.43, 16.54, 14.3, 10.96, 10.84, 8.85, 8.85, 9.17, 11.6, 12.96, 8.27, 8.27, 8.48, 8.48, 8.94, 9.16, 9.64, 9.4, 9.0, 9.04, 9.07, 9.09, 9.09, 9.09, 9.12, 8.86, 9.17, 10.18, 10.25, 11.09, 11.28, 12.08, 12.94, 12.62, 12.07, 9.8, 0.0, -13.15, -13.41, -13.23, -12.52, -10.28, -11.18, -10.28, -10.28, -9.2, -10.73, -8.8, -11.18, -9.83, -8.55, -8.93, -9.33, -9.33, -6.95, -4.4, -4.4, -7.27, -10.73, 11.18, 8.22, 9.3, 10.18, 9.39, 9.83, 10.73, 6.45, 11.28, 18.24, 9.67, -7.19, -9.17, -7.69, -6.4, -0.0, -0.0, 11.7, 16.99, 11.38, 12.07, 12.85, 16.76, 20.56, 10.41, 10.73, 16.22, 17.43, 17.88, 16.99, 15.77, 14.95, 13.05, 12.52, 11.37, 9.96, 14.56, 14.9, 16.09, 16.09, 16.54, 16.66, 12.72, 10.79, 11.62, 13.15, 12.96, 12.96, 12.96, 8.27, 8.27, 8.48, 8.48, 8.94, 9.16, 9.37, 9.64, 9.42, 9.04, 9.07, 9.09, 9.39, 8.83, 9.12, 8.85, 8.59, 9.15, 9.8, 10.18, 10.82, 10.96, 11.82, 12.72, 12.41, 11.93, 9.8, 3.36, -9.48, -13.41, -13.41, -12.07, -10.28, -10.73, -9.2, -7.44, -9.75, -9.2, -7.59, -9.2, -7.81, -6.64, -9.2, -6.95, -6.95, -6.64, -6.95, -4.6, -7.27, -7.27, 11.18, 11.62, 11.62, -0.0, -0.0, 9.83, 7.27, 9.67, 14.75, 11.06, -0.0, -8.22, -0.0, 12.07, 12.07, 0.0, 0.0, 0.0, 7.2, 13.91, 19.92, 18.52, 15.02, 4.55, 6.8, 12.96, 12.01, 14.66, 17.97, 18.33, 16.39, 14.66, 13.26, 11.52, 9.66, 7.9, 11.64, 12.46, 12.79, 13.59, 14.53, 11.12, 12.04, 13.23, 12.52, 12.07, 11.2, 11.2, 8.27, 8.27, 8.48, 8.48, 8.94, 8.94, 9.61, 9.64, 9.67, 9.7, 8.79, 9.47, 9.48, 9.49, 9.22, 9.22, 8.87, 8.58, 9.48, 10.13, 10.41, 10.96, 11.16, 11.94, 12.62, 13.15, 13.19, 12.9, 12.27, 7.93, -9.48, -12.96, -11.18, -11.18, -8.48, -6.64, -8.8, -8.93, -7.27, -8.8, -8.8, -8.0, -7.27, -6.32, -6.95, -4.4, -4.6, -4.6, -7.27, -0.0, -0.0, -0.0, -0.0, -0.0, -0.0, 10.28, 10.28, 7.59, -0.0, -0.0, 12.52, 11.18, -0.0, -0.0, -0.0, 10.28, 8.22, 0.0, 0.0, 17.43, 20.34, 10.17, 0.0, -7.8, -17.88, -0.0, 4.17, 9.55, 11.43, 11.73, 12.64, 15.59, 16.12, 10.75, 7.93, 6.45, 7.54, 11.12, 10.73, 11.88, 13.19, 11.5, 8.85, 11.12, 12.04, 11.71, 11.2, 11.2, 8.27, 8.27, 8.48, 8.48, 8.48, 8.94, 8.94, 9.64, 9.67, 9.42, 9.45, 9.47, 9.48, 9.49, 9.22, 8.87, 8.87, 8.87, 8.87, 10.06, 10.88, 11.44, 11.72, 12.13, 12.87, 13.92, 14.51, 14.42, 13.8, 13.03, 11.33, 0.0, -11.87, -11.18, -9.6, -7.27, -8.18, -9.75, -9.83, -9.83, -9.83, -9.83, -8.8, -7.27, -7.27, -7.27, -7.59, -0.0, -0.0, -0.0, -0.0, -0.0, -0.0, -0.0, -0.0, 4.6, 4.6, 4.8, -0.0, 11.18, 12.07, 11.62, -0.0, -5.95, -4.8, -0.0, 6.64, 5.7, 4.48, 9.39, 12.07, 0.0, -8.8, -17.17, -17.1, -7.6, -0.0, 9.95, 12.95, 12.22, 12.33, 13.96, 15.99, 4.24, 0.0, 0.0, 3.14, 7.78, 8.05, 8.94, 11.44, 10.37, 6.97, 7.54, 10.37, 11.6, 10.41, 10.41, 8.27, 8.27, 8.27, 8.27, 8.71, 8.94, 8.94, 9.64, 9.64, 9.67, 9.45, 9.45, 9.47, 9.21, 8.85, 8.84, 8.59, 8.87, 8.85, 10.01, 11.87, 13.19, 12.11, 11.77, 11.62, 12.98, 11.92, 12.39, 11.16, 11.09, 10.82, 8.44, 5.6, -8.53, -10.0, -5.95, -7.27, -10.41, -11.18, -10.73, -9.83, -10.28, -11.18, -10.0, -8.22, -7.59, -0.0, -0.0, -0.0, -0.0, -0.0, -0.0, -0.0, -0.0, -0.0, 3.25, 4.6, 7.9, 10.8, 11.62, 11.62, 11.62, -7.9, -5.46, -5.06, -4.2, -0.0, 9.75, 8.93, 12.79, 17.64, 20.12, 23.25, 24.59, 12.01, -11.06, 11.38, 16.22, 16.82, 16.76, 15.19, 16.54, 16.09, 11.2, 4.24, 3.25, 2.63, 2.13, 2.63, 2.2, 4.52, 9.48, 8.53, 7.26, 9.8, 12.27, 12.87, 12.87, 8.52, 8.52, 8.52, 8.52, 8.97, 8.94, 8.94, 9.37, 9.64, 10.08, 10.1, 9.45, 9.47, 9.48, 9.49, 8.87, 8.59, 7.96, 7.93, 9.3, 12.03, 13.03, 12.54, 10.73, 9.64, 9.64, 9.69, 9.89, 9.8, 8.72, 8.42, 8.32, 7.85, 5.4, 11.62, -0.0, -4.8, -9.6, -10.73, -10.28, -10.73, -10.41, -10.0, -7.9, -7.9, -8.22, -0.0, -0.0, -4.6, -4.4, -3.11, -3.25, -0.0, -0.0, -0.0, 2.39, 6.2, 7.59, 10.73, 11.62, 11.18, 10.73, -7.59, -7.59, -7.27, -7.27, -3.25, 7.9, 11.91, 12.72, 15.27, 18.55, 23.48, 26.26, 20.83, 12.71, 7.2, 10.3, 14.79, 16.76, 15.65, 16.37, 15.05, 13.41, 12.39, 9.48, 4.98, 2.54, 0.0, -2.45, 0.0, 10.73, 11.6, 9.17, 8.66, 13.03, 12.65, 12.65, 8.52, 8.52, 8.52, 8.52, 8.97, 8.97, 9.2, 9.64, 9.64, 10.34, 10.1, 10.11, 9.47, 9.48, 9.48, 9.5, 8.87, 7.87, 6.96, 8.59, 10.51, 11.93, 12.28, 11.4, 10.43, 10.12, 9.8, 7.9, 7.24, 6.84, 6.84, 7.26, 7.65, 8.22, 8.22, 11.18, 11.18, -0.0, -7.59, -10.0, -10.0, -10.0, -9.3, -7.24, -5.2, -8.53, -6.95, -7.27, -4.6, -3.25, -3.11, -3.25, -0.0, -0.0, -0.0, 2.49, 5.0, 5.0, 11.62, 11.18, -11.18, -10.0, -10.18, -10.6, -9.75, -7.59, -7.59, -0.0, 6.67, 8.31, 11.06, 15.25, 22.05, 24.99, 18.8, 11.04, 8.0, 9.01, 8.77, 10.75, 14.84, 15.65, 14.18, 12.56, 12.87, 13.01, 13.41, 12.72, 13.15, 2.93, 5.6, 11.5, 13.57, 11.99, 9.8, 11.8, 13.7, 13.7, 8.3, 8.52, 8.52, 8.52, 8.97, 8.97, 8.97, 8.97, 9.64, 10.08, 10.1, 10.11, 9.47, 9.48, 9.84, 9.49, 8.87, 8.53, 8.87, 9.8, 10.43, 10.69, 10.69, 10.42, 10.69, 10.73, 10.81, 9.56, 7.54, 6.7, 5.86, 5.64, 6.16, 6.45, 8.22, 10.0, 11.62, 11.62, 11.18, -0.0, -0.0, -0.0, -5.0, -2.93, -2.71, -2.6, -0.0, -4.4, -4.6, -3.25, -3.25, -3.39, -0.0, -0.0, -0.0, -0.0, 2.28, 2.45, -0.0, -10.73, -9.97, -10.41, -10.6, -10.6, -10.6, -7.9, -5.2, -0.0, -0.0, 2.89, 7.0, 13.09, 19.71, 19.31, 3.45, 4.39, 6.59, 7.99, 6.01, 5.09, 9.39, 16.54, 13.8, 9.73, 9.31, 7.44, 7.44, 8.94, 11.33, 12.07, 10.35, 11.5, 13.75, 13.57, 11.44, 10.12, 14.75, 14.75, 8.3, 8.3, 8.3, 8.97, 8.97, 8.97, 8.97, 8.97, 9.4, 9.67, 10.1, 10.11, 10.13, 9.84, 9.49, 9.49, 9.21, 8.87, 9.5, 11.05, 11.63, 11.23, 10.59, 10.01, 10.06, 10.7, 11.01, 10.9, 10.48, 8.85, 7.02, 6.45, 5.2, 5.98, 8.22, 8.22, 10.4, 11.62, 11.62, 10.4, 10.4, 5.2, -0.0, -0.0, -0.0, -0.0, -0.0, -0.0, -0.0, -0.0, -3.25, -3.39, -3.39, -0.0, -0.0, -0.0, -0.0, -0.0, -0.0, -6.64, -9.11, -9.97, -11.03, -8.22, -6.2, -5.0, -3.68, -0.0, -0.0, -0.0, -0.0, 12.64, 11.8, -6.2, 0.0, 1.54, 4.55, 5.79, 6.31, 2.96, 2.28, 11.06, 13.02, 11.06, 9.22, 8.87, 8.87, 10.12, 10.75, 11.44, 12.71, 11.99, 12.27, 13.28, 10.12, 10.12, 14.3, 14.3, 8.3, 8.3, 8.3, 8.3, 8.74, 8.74, 9.0, 9.0, 9.0, 9.42, 9.7, 10.11, 10.13, 9.84, 9.84, 9.5, 9.21, 9.5, 9.82, 11.33, 11.87, 12.27, 11.62, 10.79, 10.51, 10.65, 10.96, 11.18, 11.28, 10.94, 10.01, 9.27, 7.26, 7.9, 7.9, 9.3, 10.84, 11.18, 11.62, 11.28, 11.28, 11.03, 8.22, 3.68, -0.0, -0.0, -0.0, -0.0, -0.0, -0.0, -0.0, -3.53, -3.39, -3.39, -2.49, -2.49, -4.6, -2.93, -0.0, 5.2, -6.32, -9.39, -11.18, -3.68, -2.71, -2.37, -0.0, -0.0, -0.0, -0.0, 0.0, 14.54, 21.57, -0.0, 16.54, 0.0, 4.24, 5.11, 5.99, 6.17, 1.96, 3.47, 13.19, 14.3, 14.75, 14.31, 13.7, 10.43, 7.82, 7.82, 9.8, 12.72, 4.38, 6.2, 0.0, 0.0, -0.0, -0.0, 8.3, 8.3, 8.3, 8.3, 9.0, 9.0, 9.0, 9.0, 8.77, 9.04, 9.45, 10.11, 9.84, 9.84, 9.84, 9.5, 9.21, 9.21, 10.13, 11.03, 11.58, 12.37, 12.27, 11.88, 11.34, 11.06, 11.26, 11.05, 11.16, 11.64, 11.6, 11.6, 11.44, 10.09, 10.27, 10.18, 11.02, 11.18, 11.18, 11.51, 11.46, 11.4, 10.0, 7.9, 6.2, 2.6, 2.82, 2.6, 2.39, 1.93, -0.0, -0.0, -3.39, -3.39, -3.25, -3.25, -5.7, -5.46, -5.2, 8.85, 11.18, 9.39, -0.0, -0.0, -2.28, -2.37, -0.0, -0.0, -0.0, 11.62, 8.05, 11.88, 21.06, 27.72, 27.44, 20.28, 17.88, 12.52, 7.93, 9.48, 8.66, 7.13, 8.05, 9.48, 12.27, 13.99, 13.19, 3.58, -0.0, -0.0, 7.6, 9.44, 14.3, -10.43, -11.99, -13.86, -0.0, -0.0, 8.33, 8.33, 8.33, 8.33, 8.77, 8.77, 8.77, 9.04, 9.04, 8.79, 9.19, 9.47, 9.84, 10.13, 9.84, 9.84, 9.5, 9.84, 10.13, 10.75, 11.58, 12.45, 12.65, 12.54, 12.03, 11.75, 11.06, 10.99, 10.99, 11.12, 11.75, 11.92, 11.68, 11.45, 11.21, 10.96, 10.68, 10.73, 11.18, 11.11, 11.09, 11.51, 10.6, 10.0, 7.59, 4.8, 5.2, 4.6, 3.65, 3.65, 1.84, -0.0, -0.0, -3.82, -6.2, -5.95, -5.7, -5.46, -9.2, 11.62, 12.07, 11.71, 7.81, 2.39, -0.0, -0.0, -0.0, -0.0, -0.0, 12.52, 6.7, 11.44, 16.71, 24.14, 26.35, 22.9, 19.29, 17.7, 6.45, 6.45, 9.48, 9.8, 10.75, 9.8, 10.12, 15.65, -0.0, -0.0, -0.0, -0.0, 5.37, 11.13, 11.87, 0.0, -13.86, -0.0, 7.69, 7.69, 8.33, 8.33, 8.33, 8.33, 8.77, 8.77, 9.04, 9.04, 8.79, 9.07, 8.81, 9.47, 10.13, 10.13, 10.47, 10.13, 9.84, 10.13, 10.13, 10.43, 11.33, 11.87, 12.37, 12.82, 12.7, 12.03, 11.61, 11.17, 11.3, 11.6, 11.44, 11.47, 11.62, 11.45, 11.61, 11.36, 11.49, 11.14, 10.73, 10.28, 11.18, 11.55, 11.53, 10.18, 8.82, 8.94, 6.71, 6.17, 5.9, 3.65, 2.1, -0.0, -1.69, -3.25, -6.2, -7.59, -8.93, -8.55, -9.11, -9.75, -0.0, 7.9, 7.9, 4.8, 3.04, -0.0, -0.0, -0.0, -0.0, 9.17, 7.19, 9.48, 13.19, 16.92, 19.08, 23.22, 22.6, 19.52, 3.65, 2.39, 6.16, 8.54, 9.31, 8.1, 0.0, -10.43, -0.0, -0.0, -0.0, -0.0, 3.69, 12.92, 14.71, 15.69, 14.42, 7.93, 10.12, 10.12, 8.11, 8.11, 8.11, 8.11, 8.37, 8.79, 8.79, 8.79, 8.79, 8.81, 8.81, 9.09, 9.48, 9.84, 10.47, 10.76, 10.45, 10.13, 10.43, 10.72, 10.99, 11.52, 11.8, 12.27, 12.7, 12.42, 12.14, 11.99, 11.2, 11.33, 11.57, 11.06, 11.3, 11.45, 11.66, 11.36, 11.51, 11.14, 11.18, 10.73, 11.18, 11.62, 11.11, 9.89, 9.04, 9.6, 9.2, 8.23, 5.9, 4.6, 2.19, -0.0, -0.0, -3.82, -6.7, -9.67, -10.6, -10.41, -9.2, -9.2, -6.2, -0.0, 5.0, 5.4, 3.68, -0.0, -0.0, 12.52, 0.0, 5.8, 11.9, 11.44, 10.3, 10.82, 14.11, 19.55, 23.69, 19.22, 3.36, 1.69, 4.4, 6.84, 8.97, 6.44, -8.85, -13.15, -10.43, -3.07, -0.0, -0.0, 10.43, 15.18, 14.79, 15.19, 14.79, 13.02, 12.65, 12.65, 8.37, 8.37, 8.37, 8.37, 8.37, 8.79, 8.79, 8.81, 8.81, 8.81, 8.83, 8.83, 9.21, 9.49, 10.13, 10.76, 10.45, 10.43, 10.72, 10.4, 10.94, 11.23, 11.44, 11.72, 12.16, 12.03, 11.88, 11.99, 11.31, 11.44, 11.25, 11.16, 11.3, 11.52, 11.23, 11.4, 11.51, 11.15, 11.14, 10.73, 11.18, 11.18, 11.11, 11.71, 11.71, 8.93, 8.63, 9.13, 8.55, 4.6, 2.71, -0.0, -0.0, -2.49, -6.44, -7.59, -10.8, -9.67, -9.6, -8.94, -7.9, -0.0, 3.82, -0.0, -0.0, -0.0, 2.72, -0.0, 0.0, 0.0, 9.8, 14.55, 13.44, 10.18, 7.68, 11.61, 18.23, 17.85, 13.28, 4.12, 6.21, 6.42, 8.85, 10.35, 11.6, 4.24, -4.24, -12.27, -10.75, 15.2, 14.75, 15.2, 15.43, 14.65, 14.91, 14.13, 14.03, 14.03, 8.14, 8.14, 8.14, 8.37, 8.37, 8.14, 8.81, 8.81, 8.56, 8.83, 8.83, 8.85, 8.85, 9.49, 9.84, 10.76, 10.45, 11.03, 10.72, 10.4, 10.94, 11.23, 11.16, 11.62, 11.62, 11.5, 11.75, 11.6, 11.31, 11.54, 11.75, 11.25, 11.38, 11.15, 11.28, 11.23, 11.4, 11.06, 11.06, 10.7, 10.69, 10.73, 11.18, 10.65, 10.75, 10.4, 10.0, 9.75, 9.2, 6.2, 2.71, 2.49, -0.0, -3.25, -4.8, -6.44, -6.95, -7.9, -9.3, -10.0, -8.93, -5.0, 12.07, -11.62, -5.4, -3.04, -0.0, -0.0, 11.18, 0.0, 3.39, 13.01, 16.09, 16.76, 13.23, 13.59, 15.22, 14.19, 17.39, 18.68, 14.86, 7.51, 9.67, 12.27, 9.46, 11.17, 11.09, 14.3, -14.75, -13.99, -14.75, 15.65, 15.65, 15.18, 14.94, 15.24, 15.24, 15.24, 7.7, 7.7, 8.14, 8.14, 8.4, 8.4, 8.4, 8.16, 8.43, 8.83, 8.57, 8.85, 8.85, 8.85, 9.5, 10.13, 10.45, 11.03, 11.33, 11.28, 10.94, 11.23, 11.16, 11.44, 11.5, 11.5, 11.22, 11.08, 11.54, 11.54, 11.75, 11.75, 11.45, 11.38, 11.15, 10.84, 10.96, 10.96, 10.62, 10.62, 10.69, 10.68, 10.73, 10.73, 10.62, 12.07, 11.71, 10.32, 8.82, 8.94, 6.44, 4.6, 3.25, -0.0, -3.39, -4.8, -5.29, -5.2, -5.95, -9.3, -10.84, -11.62, -12.07, -9.67, -6.7, -5.2, -5.2, -0.0, 10.8, 9.83, 6.01, 10.0, 15.65, 22.29, 21.01, 16.2, 13.11, 11.93, 14.46, 18.66, 18.23, 11.53, 12.96, 11.16, 12.11, 13.02, 13.7, 14.03, 14.3, -14.75, -13.99, -10.43, 13.59, 14.53, 14.65, 14.71, 15.52, 15.52, 7.96, 7.96, 8.4, 8.4, 8.4, 8.16, 8.16, 8.43, 8.18, 8.18, 8.85, 8.85, 8.58, 8.86, 9.5, 9.84, 10.45, 11.03, 11.33, 10.99, 11.28, 11.23, 11.16, 11.44, 11.34, 10.96, 10.83, 10.55, 11.77, 10.75, 11.54, 11.75, 11.67, 11.45, 11.58, 11.15, 10.84, 10.98, 10.52, 10.62, 10.16, 10.69, 10.73, 10.73, 10.73, 11.18, 11.09, 10.32, 9.6, 10.0, 9.2, 8.23, 7.59, 4.8, -0.0, -4.6, -4.15, -3.53, -4.23, -5.7, -10.04, -11.03, -11.03, -6.2, -6.45, -5.0, -5.7, -8.22, 12.52, 12.07, 10.28, 10.28, 9.8, 18.78, 28.86, 19.63, 11.5, 7.15, 11.53, 16.6, 17.68, 17.64, 15.34, 13.07, 13.99, 14.81, 15.25, 14.51, 14.3, 9.8, -6.2, -6.4, -0.0, 12.65, 13.59, 14.65, 15.27, 15.27, 7.73, 7.73, 8.16, 8.16, 8.16, 8.43, 8.18, 8.18, 8.18, 8.46, 8.2, 8.58, 8.86, 8.86, 9.21, 9.21, 10.13, 10.13, 10.43, 10.99, 11.28, 11.8, 11.72, 11.62, 11.24, 10.96, 10.68, 10.94, 10.67, 11.6, 10.4, 11.16, 11.16, 11.38, 11.58, 11.15, 11.31, 10.84, 10.96, 10.52, 10.16, 10.69, 10.68, 10.73, 11.18, 10.73, 10.65, 9.97, 10.32, 10.32, 9.75, 9.55, 10.0, 8.93, 4.6, -0.0, -2.1, -3.39, -3.25, -4.23, -6.7, -7.59, -5.2, -3.39, -5.0, -6.2, -7.59, -7.27, 11.62, 12.96, 8.53, -0.0, 0.0, 12.57, 27.62, 23.64, 13.7, 0.0, 13.41, 14.3, 16.04, 16.76, 16.22, 16.22, 16.5, 16.51, 16.06, 15.17, 14.3, 13.41, -0.0, -0.0, -0.0, 11.9, 13.28, 13.97, 14.23, 14.23, 7.73, 7.73, 8.16, 8.18, 8.18, 8.18, 8.18, 8.46, 8.2, 8.2, 8.2, 8.86, 8.86, 8.59, 8.87, 9.5, 9.21, 10.12, 10.4, 10.72, 11.28, 11.52, 11.44, 11.72, 11.62, 11.34, 10.68, 10.94, 10.94, 10.67, 10.4, 10.65, 10.65, 11.3, 11.3, 11.09, 11.09, 11.28, 10.98, 10.52, 10.62, 10.16, 10.69, 10.73, 10.73, 10.28, 10.28, 10.22, 10.65, 10.32, 10.62, 11.02, 10.52, 9.97, 8.55, 3.25, -0.0, -0.0, -1.69, -3.39, -6.94, -5.0, -5.0, -0.0, -3.25, -5.95, -7.59, -8.93, -10.4, -8.85, -0.0, 5.6, 12.52, 12.0, 20.91, 25.24, 18.78, 13.99, 11.75, 13.57, 15.93, 16.5, 16.54, 16.99, 16.54, 16.09, 16.09, 15.17, 14.19, 13.01, 8.85, -0.0, 8.85, 11.99, 13.01, 13.99, 13.97, 13.97, 7.5, 7.5, 7.76, 8.18, 8.18, 8.18, 8.2, 8.2, 8.2, 8.2, 8.49, 8.59, 8.59, 8.59, 8.87, 9.5, 9.5, 9.5, 9.8, 10.4, 10.69, 11.28, 11.44, 11.72, 11.62, 11.5, 10.83, 10.68, 10.94, 11.2, 10.92, 10.4, 10.65, 10.88, 10.88, 11.09, 11.09, 11.23, 10.8, 10.93, 10.62, 10.16, 10.25, 10.73, 10.28, 10.28, 9.83, 10.28, 10.22, 10.65, 10.65, 11.06, 10.58, 10.08, 10.41, 8.55, 2.39, -0.0, -0.0, -3.25, -4.4, -6.45, -4.8, -5.0, -0.0, -10.0, -8.93, -9.3, -9.3, -8.53, -5.6, 6.2, 14.3, 15.25, 18.42, 21.31, 20.21, 16.79, 15.56, 17.41, 17.43, 16.96, 15.34, 14.81, 15.58, 14.75, 14.71, 14.6, 12.89, 11.2, 11.62, 11.87, 12.52, 12.52, 12.3, 11.6, 13.19, 13.19, 7.76, 7.76, 7.76, 7.53, 7.93, 8.2, 8.2, 8.2, 7.95, 8.22, 8.22, 8.59, 8.87, 8.59, 8.59, 8.87, 9.19, 9.19, 9.8, 10.09, 10.69, 10.94, 11.23, 11.72, 11.62, 11.5, 11.22, 10.83, 10.94, 11.2, 11.06, 10.92, 10.65, 10.13, 10.38, 10.6, 10.6, 10.8, 10.93, 10.93, 10.6, 10.6, 10.25, 9.83, 9.83, 9.83, 9.83, 10.28, 10.28, 10.73, 10.73, 10.73, 10.28, 10.73, 10.08, 8.8, 5.46, 2.39, -0.0, -1.69, -3.25, -4.6, -7.59, -4.6, -0.0, -7.9, -8.55, -7.59, -6.2, -7.9, -5.8, -0.0, 13.02, 16.79, 19.22, 17.39, 17.39, 19.08, 21.0, 19.14, 19.22, 15.82, 12.04, 12.04, 13.41, 12.71, 12.3, 11.87, 11.2, 11.92, 11.6, 12.3, 12.96, 12.96, 11.2, 12.3, 11.88, 11.88, 7.53, 7.53, 7.53, 7.53, 8.2, 8.2, 8.2, 7.95, 8.22, 8.22, 8.22, 8.59, 8.59, 8.59, 8.87, 8.87, 9.19, 9.48, 9.48, 9.77, 10.09, 10.36, 10.88, 10.88, 11.16, 11.24, 11.5, 11.22, 11.08, 10.8, 10.67, 10.92, 11.06, 10.65, 10.38, 10.6, 10.52, 10.75, 10.93, 10.89, 10.58, 10.58, 10.24, 11.18, 9.39, 9.83, 10.28, 10.28, 10.28, 10.73, 10.73, 10.73, 10.28, 10.73, 9.64, 9.54, 6.95, 5.21, -0.0, -0.0, -3.11, -2.97, -4.6, -4.4, -0.0, -0.0, -4.4, -5.7, -5.95, -3.39, -5.2, -0.0, 8.68, 17.58, 20.85, 17.83, 13.27, 16.55, 21.76, 21.96, 18.55, 15.46, 13.15, 12.07, 5.4, 11.6, 12.45, 11.6, 11.6, 11.92, 12.46, 12.89, 13.23, 13.41, 12.96, 12.3, 13.01, 11.99, 7.53, 7.53, 7.53, 7.8, 7.8, 7.95, 7.95, 8.22, 8.22, 8.22, 8.22, 8.23, 8.59, 8.87, 8.87, 8.87, 8.87, 9.17, 9.17, 9.48, 9.77, 10.3, 10.65, 10.65, 10.8, 11.07, 11.34, 11.36, 11.08, 10.91, 10.8, 10.92, 11.06, 10.65, 10.79, 10.38, 10.52, 10.75, 10.68, 10.45, 10.41, 10.58, 10.12, 11.62, 9.83, 9.83, 10.24, 10.23, 10.23, 10.66, 10.22, 10.28, 10.28, 10.28, 9.83, 9.21, 8.4, 6.64, 2.97, -0.0, -1.62, -2.97, -3.39, -0.0, -0.0, -0.0, -0.0, -3.25, -3.39, -3.53, -5.0, -9.17, 10.43, 17.02, 23.5, 22.57, 14.18, 11.87, 16.21, 18.18, 16.02, 14.99, 15.2, 12.27, 9.8, 11.99, 13.15, 13.32, 12.89, 13.01, 13.01, 13.01, 13.28, 13.23, 13.41, 12.96, 13.41, 13.01, 7.53, 7.53, 7.8, 7.55, 7.55, 7.95, 8.22, 8.22, 8.22, 7.96, 8.23, 8.23, 8.23, 8.58, 8.58, 8.58, 8.87, 9.17, 9.17, 9.46, 9.72, 10.06, 10.3, 10.59, 10.59, 10.87, 10.7, 10.96, 11.22, 11.08, 10.8, 10.92, 10.92, 11.06, 10.79, 10.79, 10.52, 10.52, 10.68, 10.41, 10.41, 9.92, 10.12, 9.64, 11.51, 9.79, 10.68, 10.52, 10.04, 10.22, 9.76, 9.76, 9.39, 9.39, 9.39, 9.21, 8.0, 6.32, 2.97, -0.0, -1.93, -2.97, -1.49, -0.0, -0.0, -0.0, -0.0, -3.25, -3.39, -3.53, -0.0, 11.62, 13.86, 15.65, 18.66, 23.29, 21.98, 15.93, 11.72, 11.09, 11.72, 13.41, 12.72, 11.64, 11.92, 13.32, 13.88, 14.64, 14.19, 13.79, 13.77, 13.86, 13.86, 13.86, 13.41, 13.41, 12.96, 13.41, 7.55, 7.55, 7.55, 7.55, 7.55, 7.83, 8.22, 7.96, 7.96, 8.23, 8.23, 8.23, 8.24, 8.58, 8.58, 8.58, 8.87, 8.87, 9.46, 9.46, 9.46, 9.72, 9.72, 10.01, 10.23, 10.51, 10.51, 10.79, 10.83, 11.08, 10.91, 10.4, 10.52, 10.65, 10.53, 10.79, 10.95, 10.52, 10.68, 10.25, 10.41, 9.97, 9.92, 9.85, 9.42, 11.06, 10.08, 10.04, 9.54, 9.76, 9.32, 9.29, 9.29, 8.94, 8.94, 8.94, 8.24, 7.44, 6.32, -0.0, -2.28, -3.49, -3.39, -0.0, -0.0, -0.0, -0.0, -3.39, -3.25, -3.53, -3.68, 11.62, 0.0, 9.8, 14.84, 17.85, 26.26, 25.32, 13.86, 11.6, 13.99, 13.19, 12.03, 12.38, 13.01, 13.63, 14.3, 14.75, 14.75, 14.3, 14.3, 14.3, 13.77, 13.77, 13.31, 12.79, 12.71, 12.71, 7.55, 7.55, 7.55, 7.55, 7.83, 7.57, 7.96, 7.96, 8.23, 8.23, 7.96, 7.96, 8.24, 8.24, 8.58, 8.87, 8.87, 8.87, 8.87, 9.13, 9.13, 9.13, 10.01, 10.01, 10.01, 10.3, 9.94, 10.41, 10.41, 10.68, 10.68, 10.4, 10.62, 10.52, 10.65, 10.79, 10.68, 10.95, 10.43, 10.68, 10.18, 10.18, 9.92, 9.92, 10.35, 10.35, 10.12, 9.79, 9.33, 9.32, 9.32, 8.85, 8.85, 8.94, 8.49, 8.49, 7.81, 8.24, 8.48, -0.0, -2.28, -3.32, -3.15, -0.0, -0.0, -0.0, -0.0, -3.25, -5.7, -6.2, -3.68, -11.18, 0.0, 0.0, 6.6, 15.61, 21.81, 30.93, 26.72, 17.59, 15.28, 14.65, 16.2, 14.75, 13.01, 13.81, 13.86, 14.16, 14.31, 13.96, 13.96, 13.57, 12.98, 12.56, 12.46, 12.04, 12.04, 12.04, 7.55, 7.55, 7.55, 7.57, 7.57, 7.57, 7.96, 8.23, 8.23, 7.96, 7.96, 8.24, 8.24, 8.24, 8.58, 8.87, 8.56, 8.56, 8.56, 8.85, 9.13, 9.42, 9.42, 9.66, 9.94, 9.94, 9.94, 10.23, 9.86, 10.3, 10.55, 10.8, 10.4, 10.52, 10.4, 10.53, 10.68, 10.68, 10.85, 10.43, 10.68, 10.18, 10.18, 10.08, 10.35, 10.78, 10.56, 9.64, 9.33, 8.89, 8.87, 8.85, 8.94, 8.94, 8.49, 8.49, 8.05, 8.05, 8.49, 6.32, -2.17, -3.32, -1.75, -0.0, -0.0, -0.0, -0.0, -3.39, -5.7, -6.2, -6.2, -7.59, 0.0, 0.0, 6.0, 10.75, 17.35, 23.63, 29.44, 23.77, 19.31, 19.55, 17.23, 17.02, 14.08, 13.67, 14.3, 14.11, 12.79, 12.79, 12.74, 12.74, 12.03, 11.64, 10.79, 10.37, 10.37, 10.37, 6.9, 6.9, 7.57, 7.57, 7.57, 7.57, 8.23, 7.96, 7.96, 7.96, 8.24, 8.24, 8.24, 8.24, 8.56, 8.56, 8.56, 8.56, 8.85, 8.85, 8.53, 8.82, 9.08, 9.71, 9.94, 9.94, 9.94, 10.23, 10.23, 10.13, 10.13, 10.55, 10.4, 10.27, 10.52, 10.65, 10.53, 10.68, 10.85, 10.43, 10.43, 10.18, 10.18, 10.08, 10.08, 10.35, 10.28, 10.08, 9.64, 9.6, 9.33, 9.32, 8.85, 8.94, 8.94, 8.49, 8.49, 8.05, 8.05, 7.6, -0.0, -1.75, -1.75, -0.0, -0.0, -0.0, -0.0, -5.21, -6.17, -5.95, -5.2, -0.0, 11.18, 5.6, 9.48, 12.79, 16.09, 18.25, 22.03, 22.99, 22.08, 22.76, 22.76, 17.43, 16.12, 14.28, 14.47, 14.75, 13.19, 10.47, 11.44, 8.85, 9.17, 10.12, 10.37, 8.85, 8.85, 8.85, 6.9, 6.9, 7.57, 7.57, 7.57, 7.85, 7.96, 7.96, 7.96, 8.24, 8.24, 8.24, 8.24, 7.96, 8.24, 8.56, 8.56, 8.56, 8.85, 8.85, 8.82, 8.82, 8.82, 9.37, 9.71, 9.71, 10.23, 10.23, 10.01, 9.66, 10.13, 10.4, 10.02, 10.27, 10.52, 10.4, 10.53, 10.68, 10.68, 10.85, 10.43, 10.43, 10.6, 10.08, 10.08, 10.08, 10.28, 9.85, 10.08, 9.6, 9.6, 9.32, 9.32, 8.85, 8.94, 8.49, 8.49, 8.05, 7.81, 8.05, -0.0, -0.0, -0.0, -0.0, -0.0, -0.0, -0.0, -2.83, -5.46, -5.7, -7.27, -7.59, 11.62, 12.52, 13.41, 13.86, 15.2, 15.97, 17.25, 15.01, 18.72, 25.66, 26.09, 21.01, 18.49, 15.54, 16.22, 16.09, 13.28, 7.69, 9.48, 8.53, 7.51, 6.94, 6.94, 2.93, 2.93, 2.93, 6.9, 6.9, 7.16, 7.57, 7.32, 7.59, 7.96, 7.96, 7.96, 8.24, 8.24, 8.24, 7.96, 8.24, 8.24, 8.56, 8.56, 8.85, 8.85, 8.85, 8.82, 8.82, 8.82, 9.12, 9.37, 9.71, 10.01, 10.01, 10.01, 9.95, 9.95, 9.95, 9.86, 10.27, 10.52, 10.4, 10.65, 10.53, 10.68, 10.27, 10.43, 10.43, 10.32, 10.6, 10.08, 10.08, 10.28, 9.85, 9.85, 9.75, 9.6, 9.16, 9.32, 8.85, 8.49, 8.49, 8.49, 7.89, 7.89, 8.05, -0.0, -0.0, -0.0, -0.0, -0.0, -0.0, -0.0, -0.0, -6.95, -8.8, -7.27, -7.9, -11.62, 12.52, 12.96, 9.48, 13.57, 14.99, 13.97, 11.7, 14.03, 22.6, 26.5, 23.06, 20.18, 17.02, 15.43, 14.75, 13.86, 12.96, 0.0, 0.0, 3.82, 3.82, 2.93, 0.0, 0.0, 0.0, 7.16, 7.16, 7.16, 7.32, 7.59, 7.59, 7.96, 7.96, 7.96, 8.24, 8.24, 7.96, 7.96, 8.24, 8.24, 8.24, 8.56, 8.85, 8.85, 8.53, 8.82, 8.82, 8.82, 8.82, 9.12, 9.46, 10.01, 10.01, 9.95, 9.95, 9.95, 9.86, 9.86, 10.13, 10.13, 10.4, 10.65, 10.13, 10.13, 10.27, 10.27, 10.43, 10.43, 10.32, 10.5, 10.08, 9.96, 9.85, 9.85, 9.75, 9.33, 9.6, 9.11, 8.87, 8.82, 8.38, 8.49, 7.94, 7.89, 8.05, 2.4, -0.0, -0.0, -0.0, -0.0, -0.0, -0.0, -0.0, -4.4, -6.95, -7.27, -9.6, -11.62, -12.07, 12.52, 13.41, 13.86, 12.79, 10.43, 10.02, 12.56, 17.38, 21.73, 21.86, 21.26, 15.11, 10.75, -12.96, -12.58, -8.85, -12.52, -8.53, -3.68, 0.0, 0.0, -2.6, -2.6, -2.6, 7.16, 7.16, 6.92, 6.92, 7.59, 7.59, 7.59, 7.96, 8.24, 8.24, 8.24, 7.96, 7.96, 8.24, 8.24, 8.24, 8.56, 8.85, 8.53, 8.53, 8.82, 8.82, 8.82, 9.12, 9.12, 9.12, 9.42, 9.42, 9.95, 9.95, 10.24, 9.67, 9.67, 9.67, 9.97, 10.4, 10.0, 10.24, 10.13, 10.38, 10.27, 10.27, 10.43, 10.32, 10.32, 10.5, 10.08, 9.96, 9.55, 9.75, 9.33, 9.33, 9.11, 8.67, 8.85, 8.38, 8.38, 7.94, 8.05, 8.05, 5.69, -0.0, -0.0, -0.0, -0.0, -2.83, -2.83, -0.0, -0.0, -3.11, -6.95, -9.2, -11.18, -12.07, -12.52, 12.96, 13.41, 6.0, 6.4, 8.18, 11.06, 12.45, 14.22, 16.92, 22.17, 16.41, -10.18, -9.89, -11.62, -10.41, -10.8, -10.4, -7.59, -4.6, -4.4, -3.49, -3.49, -3.49, 7.16, 6.92, 6.92, 6.92, 7.32, 7.59, 7.59, 7.96, 8.24, 8.24, 7.96, 7.96, 7.96, 8.24, 8.24, 8.24, 8.24, 8.85, 8.53, 8.53, 8.53, 8.82, 8.82, 9.12, 8.84, 9.12, 9.42, 9.42, 9.73, 9.73, 9.67, 9.67, 9.67, 9.58, 9.58, 9.58, 9.86, 9.86, 10.13, 10.13, 10.38, 10.27, 10.15, 10.43, 10.32, 10.17, 10.08, 9.96, 9.55, 9.4, 9.75, 9.33, 8.79, 8.6, 8.6, 8.41, 8.38, 7.94, 8.05, 8.05, 8.05, 3.4, -0.0, -0.0, -0.0, -2.83, -6.32, -2.97, -0.0, -0.0, -4.4, -8.8, -9.83, -11.18, -12.07, -12.52, -12.96, -0.0, -0.0, 6.6, 9.22, 9.44, 10.18, 14.82, 24.76, -8.4, -11.9, -9.38, -9.8, -10.96, -11.62, -5.2, -5.0, -4.8, -3.82, -5.06, -5.06, -5.06, 6.92, 6.92, 6.92, 6.92, 7.32, 7.59, 7.59, 7.96, 8.24, 8.24, 7.96, 7.96, 7.96, 8.24, 8.24, 8.24, 8.24, 8.24, 8.24, 8.53, 8.53, 8.82, 8.82, 8.84, 8.84, 8.84, 9.16, 9.42, 9.73, 9.37, 9.67, 9.67, 9.3, 9.58, 9.58, 9.58, 9.58, 9.86, 9.86, 10.13, 10.13, 10.0, 10.27, 10.15, 10.0, 10.32, 9.77, 9.6, 9.96, 9.55, 9.4, 9.33, 9.21, 8.6, 8.6, 8.17, 8.17, 7.94, 7.94, 8.05, 8.05, 5.37, -0.0, -0.0, -0.0, -4.29, -6.64, -6.64, -4.2, -0.0, -4.6, -7.27, -7.27, -0.0, -11.18, -8.22, -8.85, 12.96, -0.0, 4.38, 8.58, 8.94, 10.12, 15.19, 27.13, 6.5, -9.66, -8.53, -8.38, -8.07, -6.71, -2.71, -2.28, -4.15, -5.52, -7.87, -7.87, -7.87, 6.92, 6.92, 6.92, 6.92, 6.92, 7.59, 7.59, 7.59, 8.24, 8.24, 7.96, 7.96, 7.96, 8.24, 8.24, 8.24, 8.24, 8.24, 8.24, 8.24, 8.24, 8.82, 8.82, 8.84, 8.84, 8.84, 9.16, 8.82, 9.14, 9.37, 9.67, 9.3, 9.3, 9.58, 9.4, 9.4, 9.4, 9.7, 9.86, 9.86, 10.13, 10.13, 10.0, 10.15, 10.15, 10.0, 9.77, 9.77, 9.6, 9.55, 9.4, 8.99, 9.21, 8.37, 8.22, 8.17, 8.17, 8.06, 7.94, 7.94, 7.6, 6.32, 2.4, -0.0, -0.0, -5.37, -8.91, -8.91, -8.8, -6.64, -6.95, -10.28, 10.28, -0.0, 10.28, 0.0, 0.0, 12.52, -0.0, 4.1, 6.0, 8.31, 11.52, 26.95, 27.55, 10.91, -4.01, -7.78, -8.82, -7.64, -5.92, -1.84, -2.28, -6.97, -7.59, -8.23, -8.23, -8.23, 6.92, 6.92, 6.92, 6.92, 6.92, 7.59, 7.59, 7.59, 8.24, 8.24, 7.96, 7.96, 7.96, 8.24, 8.24, 8.24, 7.95, 7.95, 8.24, 8.24, 8.24, 8.53, 8.53, 8.84, 8.52, 8.82, 8.82, 8.82, 9.14, 9.14, 9.09, 9.09, 9.09, 9.4, 9.4, 9.4, 9.4, 9.4, 9.7, 9.86, 9.86, 10.0, 10.0, 10.0, 10.15, 10.0, 10.0, 9.77, 9.6, 9.2, 9.4, 8.99, 8.4, 8.37, 8.22, 7.81, 8.17, 8.17, 7.94, 8.05, 7.6, 6.8, 5.37, 3.4, -0.0, -6.32, -7.21, -7.6, -10.28, -10.28, -10.28, -10.28, -10.28, 10.28, -0.0, 10.73, 11.62, -0.0, 5.6, 3.96, 4.1, 6.2, 16.39, 24.1, 21.46, -8.4, -8.43, -11.6, -11.21, -9.97, -7.36, -5.0, -5.0, -7.9, -7.59, -7.27, -7.27, -7.27, 6.92, 6.92, 6.92, 6.92, 6.92, 7.19, 7.59, 7.59, 7.87, 8.24, 7.96, 7.96, 7.96, 8.24, 8.24, 8.24, 7.95, 7.95, 8.24, 8.24, 8.24, 8.53, 8.53, 8.52, 8.52, 8.52, 8.82, 8.82, 8.49, 8.79, 8.79, 9.09, 9.09, 9.4, 9.4, 9.4, 9.4, 9.4, 9.7, 9.7, 9.7, 9.7, 10.0, 10.0, 9.84, 10.0, 10.0, 9.42, 9.77, 9.6, 9.2, 9.4, 8.4, 8.4, 8.37, 7.81, 7.81, 8.06, 7.94, 8.05, 8.05, 7.37, 7.21, 6.8, 5.69, -5.69, -7.89, -7.97, -10.28, -10.73, -10.73, -10.73, -10.73, -10.28, 9.83, 9.83, 10.73, 11.62, -0.0, 5.6, 3.96, 4.24, 14.66, 18.85, 12.19, -17.88, -13.86, -7.59, -10.73, -10.0, -8.41, -6.45, -6.97, -6.71, -6.71, -5.9, -5.9, -5.9, 6.92, 6.92, 6.92, 6.92, 6.92, 7.19, 7.59, 7.59, 7.59, 8.24, 7.96, 7.96, 7.96, 8.24, 8.24, 7.95, 7.95, 7.95, 7.95, 8.24, 7.93, 8.22, 8.22, 8.52, 8.52, 8.52, 8.21, 8.21, 8.21, 8.53, 8.79, 8.79, 9.09, 9.09, 9.4, 9.4, 9.4, 9.4, 9.7, 9.7, 9.7, 9.7, 9.32, 9.45, 9.45, 9.27, 9.6, 9.6, 9.42, 9.6, 9.2, 8.99, 8.4, 8.4, 8.0, 8.22, 7.81, 8.06, 7.63, 7.89, 8.05, 8.05, 8.05, 8.05, 8.05, 8.05, -8.49, -8.41, -8.49, -10.73, -10.73, -10.73, -10.73, -10.28, 10.28, -0.0, 10.28, 11.18, 11.62, -0.0, -0.0, 10.12, 14.3, 18.02, 28.61, 24.59, -11.38, -3.68, -10.6, -10.27, -8.75, -7.44, -6.97, -5.2, -6.71, -5.7, -5.7, -5.7, 6.5, 6.5, 6.92, 6.92, 6.92, 7.19, 7.19, 7.59, 7.59, 7.6, 7.96, 7.96, 7.96, 8.24, 8.24, 7.95, 7.95, 7.95, 7.61, 7.9, 7.93, 7.93, 8.22, 8.22, 8.52, 8.19, 7.9, 8.21, 8.21, 8.21, 8.53, 8.53, 8.53, 8.73, 8.73, 9.02, 9.4, 9.4, 9.4, 9.7, 9.7, 9.32, 9.14, 9.45, 9.45, 9.27, 9.6, 9.6, 9.42, 9.42, 9.2, 8.6, 8.58, 8.4, 8.0, 7.76, 7.81, 7.6, 8.06, 7.89, 7.89, 8.05, 8.05, 8.05, 8.05, 8.49, 8.49, -8.49, -8.49, -10.28, -10.28, -10.73, -10.28, -9.83, -9.83, -0.0, 9.83, 10.28, 10.73, 11.62, 12.96, 13.86, 15.65, 18.96, 25.93, 23.06, -19.22, -10.75, -7.9, -10.84, -8.93, -7.56, -4.48, -2.82, -6.2, -10.0, -10.0, -10.0, 6.5, 6.5, 6.92, 6.92, 7.19, 6.94, 6.94, 7.33, 7.33, 7.6, 7.6, 7.6, 7.6, 7.89, 7.61, 7.61, 7.61, 7.61, 7.61, 7.61, 7.61, 7.61, 7.61, 7.9, 8.19, 8.19, 7.9, 8.21, 8.21, 7.88, 7.88, 8.19, 8.19, 8.19, 8.5, 8.5, 8.82, 9.19, 9.4, 9.4, 9.52, 9.14, 9.14, 9.45, 9.27, 9.27, 9.27, 9.6, 9.42, 9.42, 9.36, 8.8, 8.6, 8.21, 8.0, 7.76, 7.37, 7.6, 7.6, 7.89, 7.89, 7.89, 7.81, 8.49, 8.49, 8.49, 8.94, -8.94, -8.94, -10.28, -9.97, -9.75, -9.33, -9.39, -9.39, 9.39, 9.39, 9.39, 10.28, -11.62, 12.52, 0.0, 13.99, 17.43, 23.69, 27.34, 8.8, -15.65, -12.52, -10.4, -8.22, -6.45, -3.32, 0.0, -8.22, -3.68, -3.68, -3.68, 6.5, 6.5, 6.5, 6.92, 6.94, 6.94, 6.94, 6.94, 7.33, 7.6, 7.6, 7.6, 7.6, 7.89, 7.61, 7.61, 7.61, 7.61, 7.61, 7.33, 7.61, 7.61, 7.61, 7.91, 7.9, 8.19, 8.19, 8.21, 7.88, 7.88, 7.88, 8.19, 8.19, 8.19, 8.5, 8.5, 8.5, 8.82, 8.82, 8.82, 8.82, 9.14, 9.14, 8.93, 9.27, 9.27, 9.27, 9.05, 9.42, 9.42, 9.03, 8.8, 8.8, 8.21, 8.0, 8.0, 7.37, 7.37, 7.6, 7.89, 7.89, 7.89, 8.33, 8.24, 8.06, 8.49, 8.94, 8.94, -6.32, -8.77, -8.4, -9.3, -9.75, -8.4, -6.64, -6.64, 0.0, 9.83, 10.28, 11.62, -12.52, 0.0, 12.27, 16.31, 22.8, 27.55, 17.59, 0.0, -12.79, -6.0, -3.96, -2.93, -2.06, 0.0, 12.07, -0.0, -0.0, -0.0, 6.5, 6.5, 6.27, 6.27, 6.94, 6.94, 6.94, 6.94, 6.94, 7.6, 7.6, 7.6, 7.6, 7.89, 7.61, 7.61, 7.61, 7.61, 7.61, 7.33, 7.61, 7.61, 7.32, 7.32, 7.9, 8.19, 8.19, 8.49, 7.88, 7.88, 8.19, 8.19, 8.19, 8.19, 8.5, 8.5, 8.5, 8.5, 8.82, 8.82, 8.82, 9.14, 8.93, 8.93, 9.27, 9.27, 9.05, 9.05, 9.42, 9.42, 9.03, 8.8, 8.8, 8.21, 8.21, 8.0, 8.0, 7.37, 7.6, 7.6, 7.28, 7.89, 7.89, 8.24, 8.24, 8.06, 8.48, 8.0, 0.0, -8.48, -8.91, -9.3, -9.2, -7.59, -6.64, -6.95, 0.0, 0.0, 10.28, 10.73, -12.07, 0.0, 11.9, 14.53, 20.88, 27.72, 21.9, 14.39, 6.4, 0.0, 0.0, 0.0, 2.93, 8.85, 11.2, 1.98, 1.98, 1.98, 6.27, 6.27, 6.27, 6.27, 6.53, 6.94, 6.94, 6.94, 7.22, 7.22, 7.6, 7.6, 7.6, 7.33, 7.61, 7.61, 7.61, 7.61, 7.33, 7.61, 7.61, 7.61, 7.32, 7.32, 7.6, 7.9, 8.19, 8.49, 7.88, 7.88, 8.19, 8.19, 8.19, 8.5, 8.5, 8.5, 8.5, 8.5, 8.82, 8.82, 8.82, 9.14, 8.93, 8.93, 9.27, 9.27, 9.05, 9.05, 9.42, 9.03, 9.03, 8.63, 8.8, 8.4, 8.21, 7.82, 8.0, 7.76, 7.76, 7.6, 7.6, 7.28, 7.89, 7.89, 8.24, 8.24, 8.67, 8.48, 8.0, 0.0, -7.81, -7.81, -8.4, -11.62, -6.64, -6.95, 0.0, 0.0, 10.28, 10.73, 11.62, 0.0, 11.53, 13.7, 18.66, 25.03, 24.06, 18.78, 15.65, 14.75, 13.44, 13.01, 12.71, 12.52, 11.62, 2.45, 2.45, 2.45, 6.27, 6.27, 6.27, 6.27, 6.53, 6.94, 6.94, 6.94, 7.22, 7.22, 7.6, 7.6, 7.6, 7.33, 7.61, 7.61, 7.61, 7.61, 7.33, 7.61, 7.61, 7.61, 7.32, 7.32, 7.6, 7.9, 8.19, 8.49, 7.88, 7.88, 8.19, 8.19, 8.19, 8.5, 8.5, 8.5, 8.5, 8.5, 8.82, 8.82, 8.82, 9.14, 8.93, 8.93, 9.27, 9.27, 9.05, 9.05, 9.42, 9.03, 9.03, 8.63, 8.8, 8.4, 8.21, 7.82, 8.0, 7.76, 7.76, 7.6, 7.6, 7.28, 7.89, 7.89, 8.24, 8.24, 8.67, 8.48, 8.0, 0.0, -7.81, -7.81, -8.4, -11.62, -6.64, -6.95, 0.0, 0.0, 10.28, 10.73, 11.62, 0.0, 11.16, 13.28, 15.97, 20.12, 23.42, 20.47, 18.37, 15.61, 14.66, 13.96, 13.72, 13.23, 11.62, 5.4, 5.4, 5.4]}, {"header": {"dx": 0.06612293990616946, "dy": 0.0552356325346848, "nx": 98, "ny": 59, "la1": 35.046912555036876, "la2": 31.78801023549047, "lo1": -121.43107172385933, "lo2": -114.95102361305473, "refTime": "2026041608", "parameterCategory": 1, "parameterNumber": 3}, "data": [-15.99, -15.99, -16.12, -15.57, -14.82, -13.98, -13.51, -12.73, -12.5, -11.93, -11.35, -10.41, -12.39, -12.58, -12.07, -11.62, -11.4, -10.38, -9.3, -8.85, -8.1, -7.78, -6.97, -6.71, -7.9, -10.4, -11.71, -12.52, -12.07, -11.84, -11.2, -9.17, -5.6, -2.19, 0.0, 0.0, 0.0, 0.0, 0.0, -1.28, -1.22, -3.07, -3.19, -5.4, -6.9, -7.93, -9.98, -11.04, -6.0, 11.09, 12.42, 11.8, 11.44, 11.69, 11.06, 11.06, 10.52, 9.39, 8.65, 7.73, 8.18, 8.46, 9.8, 10.12, 9.21, 9.57, 8.58, 8.14, 8.22, 8.28, 8.7, 7.88, 8.29, 11.06, 11.06, 11.06, 8.68, 6.73, 6.1, 4.66, 7.93, 6.0, -0.0, -5.6, -5.4, -2.82, -2.93, -7.9, -5.0, -4.15, -3.96, -6.0, -6.64, -7.43, -6.18, -5.5, -2.54, -1.43, -15.99, -15.99, -16.12, -15.57, -15.01, -14.57, -13.39, -12.89, -12.37, -11.69, -10.73, -10.65, -10.37, -8.85, -5.8, -8.53, -10.73, -11.71, -9.66, -8.93, -9.48, -9.17, -7.78, -7.19, -7.59, -7.9, -9.67, -11.45, -12.07, -12.52, -14.03, -12.39, -6.94, 0.0, 0.0, 0.0, 0.0, 0.0, -0.93, -2.23, -4.39, -6.65, -7.78, -9.1, -11.62, -12.96, -13.67, -8.05, 6.2, 13.56, 12.0, 12.16, 11.44, 10.75, 11.3, 11.63, 10.52, 9.73, 8.65, 8.4, 8.18, 8.68, 10.12, 9.8, 9.8, 9.27, 9.16, 9.16, 9.27, 8.93, 8.51, 8.43, 7.82, 10.75, 11.68, 10.43, 8.18, 6.73, 6.1, 4.66, 7.93, 6.0, -0.0, -5.6, -5.4, -2.82, -2.93, -7.9, -5.0, -4.15, -3.96, -6.0, -6.64, -7.43, -6.18, -5.5, -2.54, -1.43, -16.26, -16.26, -16.26, -15.72, -15.57, -14.82, -13.98, -13.15, -12.52, -11.6, -10.98, -9.4, -10.12, -8.53, -5.2, -3.68, -8.22, -11.62, -11.21, -11.12, -9.3, -8.85, -8.85, -10.47, -9.8, -3.39, -0.0, -4.8, -10.6, -11.28, -14.75, -15.2, -13.88, -5.0, 0.0, 0.0, -1.05, -1.75, -2.59, -4.81, -6.7, -8.73, -11.7, -13.67, -14.3, -13.2, -7.79, 2.63, 12.81, 11.54, 11.54, 10.75, 10.75, 11.44, 11.03, 10.75, 10.17, 9.12, 8.4, 7.73, 8.18, 9.57, 9.8, 10.3, 9.8, 10.12, 9.97, 10.11, 10.18, 10.05, 9.12, 8.28, 7.49, 8.43, 10.43, 8.57, 6.8, 6.8, 4.76, 3.2, 12.79, 7.44, 4.1, -0.0, -0.0, -0.0, -0.0, -5.0, -7.9, -6.21, -6.85, -7.43, -8.68, -8.68, -6.4, 0.0, 2.13, 1.77, -16.26, -16.26, -16.26, -15.72, -15.57, -15.01, -14.57, -13.76, -12.78, -12.16, -11.53, -10.53, -10.61, -9.08, -9.3, -8.22, -8.22, -8.53, -11.62, -10.35, -8.73, -8.73, -7.9, -8.35, -8.53, -7.19, -3.25, -0.0, -6.95, -10.84, -11.95, -13.75, -15.49, -15.65, -10.41, -6.44, -5.29, -5.32, -6.31, -7.63, -9.95, -11.92, -12.33, -10.75, -8.37, -6.21, 0.0, 9.31, 9.71, 8.85, 9.71, 9.89, 10.43, 11.2, 11.1, 10.43, 9.22, 8.68, 8.18, 6.78, 8.68, 8.94, 10.12, 10.3, 10.73, 11.33, 11.53, 11.47, 12.33, 11.83, 9.42, 7.93, 7.0, 7.16, 5.31, 0.0, 0.0, 2.01, 4.29, 3.36, 2.63, 13.41, -0.0, -0.0, -0.0, 2.28, -0.0, -11.62, -7.9, -7.95, -8.43, -8.68, -8.51, -6.9, 4.1, 8.05, 4.1, 1.55, -16.26, -16.26, -16.26, -15.72, -15.72, -15.57, -14.82, -14.36, -13.02, -12.05, -11.05, -10.41, -10.24, -10.4, -9.58, -10.79, -9.3, -9.3, -9.3, -11.84, -9.17, -8.85, -8.22, -7.44, -7.06, -7.54, -6.94, -8.53, -11.18, -10.28, -10.73, -11.12, -11.28, -12.37, -14.22, -12.79, -13.59, -10.43, -10.86, -11.82, -11.06, -9.02, -7.44, -5.15, -1.38, 1.53, 5.81, 6.95, 8.18, 9.12, 8.85, 9.31, 10.12, 11.2, 10.43, 9.06, 7.59, 7.06, 7.43, 7.21, 8.2, 9.8, 11.35, 11.93, 11.8, 12.71, 12.57, 12.71, 13.47, 13.73, 10.91, 8.96, 9.56, 9.14, 7.0, 0.0, -4.38, -2.81, 0.0, 2.04, 0.0, 0.0, -3.82, -0.0, -0.0, -3.68, -5.4, -5.98, -8.23, -8.94, -7.68, -7.19, -8.85, 12.96, 12.96, 6.0, 0.0, 0.0, -16.26, -16.26, -16.26, -15.86, -15.72, -15.57, -15.01, -14.24, -13.61, -12.65, -11.26, -9.86, -10.24, -9.97, -10.0, -10.38, -10.38, -9.3, -8.73, -11.46, -9.86, -8.53, -8.73, -8.59, -8.85, -8.53, -10.04, -11.21, -12.96, -12.07, -9.64, -10.28, -10.28, -10.7, -12.05, -13.62, -12.63, -10.28, -10.86, -10.55, -10.01, -10.12, -5.63, -2.56, -1.1, 1.34, 5.48, 6.95, 8.58, 7.58, 6.2, 8.05, 9.02, 10.12, 9.6, 7.16, 7.16, 7.16, 6.1, 6.4, 7.69, 10.91, 13.19, 12.82, 13.01, 13.15, 12.9, 12.29, 12.01, 12.27, 11.11, 9.77, 10.57, 10.2, 8.58, 5.23, 0.0, -6.67, -2.13, 1.29, 0.0, -11.62, -8.94, -5.98, -8.22, -11.62, -10.04, -7.69, -8.18, -8.94, -8.54, -9.48, 0.0, 10.37, 12.96, 0.0, -1.83, -1.38, -16.26, -16.26, -15.99, -15.6, -15.72, -15.72, -15.18, -14.82, -13.87, -12.65, -10.79, -9.63, -9.86, -7.9, -8.53, -8.93, -10.0, -10.4, -9.86, -9.48, -11.18, -9.0, -10.18, -9.62, -10.01, -9.86, -10.62, -11.45, -12.22, -10.66, -11.18, -9.54, -9.13, -9.11, -11.05, -12.83, -12.04, -11.16, -8.22, -8.12, -10.87, -10.79, -10.12, -9.12, -4.3, 6.8, 11.38, 9.12, 8.31, 4.87, 5.63, 6.88, 8.31, 8.57, 7.58, 6.2, 6.4, 5.81, 5.31, 6.2, 7.79, 11.64, 13.59, 14.07, 13.76, 12.92, 12.01, 10.6, 9.39, 8.0, 7.64, 7.75, 7.6, 6.3, 6.16, 5.12, 3.48, 0.0, 0.0, 0.0, -1.91, -11.46, -11.95, -11.45, -12.07, -12.27, -12.17, -10.12, -8.41, -8.23, -10.3, -13.41, 8.05, 6.0, 0.0, -4.81, -4.39, -3.82, -15.86, -15.86, -15.6, -15.6, -15.6, -15.45, -14.89, -14.33, -13.87, -12.54, -10.79, -9.88, -9.86, -8.22, -7.24, -6.44, -8.22, -9.27, -8.82, -8.22, -5.75, -6.2, -10.8, -10.91, -11.88, -11.21, -11.56, -11.21, -10.62, -10.46, -11.06, -11.62, -10.96, -9.6, -10.17, -10.68, -10.32, -10.0, -9.5, -9.08, -7.9, -9.66, -9.77, -9.8, 13.19, 16.09, 14.38, 10.47, 8.18, 5.63, 5.6, 7.44, 8.05, 8.05, 7.34, 7.34, 6.73, 5.63, 4.98, 5.27, 7.73, 11.99, 13.59, 13.58, 13.1, 12.01, 9.74, 6.35, 2.09, 3.07, 2.94, 4.12, 2.28, 0.98, 0.89, 0.78, 2.35, 4.0, 3.81, 1.89, 0.0, -9.42, -12.02, -12.52, -12.31, -12.38, -11.31, -10.02, -8.61, -9.17, -12.96, 4.81, 4.98, -0.0, -9.48, -5.6, -5.4, -4.08, -15.86, -15.6, -15.6, -15.6, -15.6, -15.45, -15.06, -14.33, -13.76, -12.74, -11.34, -10.91, -11.85, -11.62, -10.24, -9.27, -9.27, -9.16, -8.22, -6.98, -2.71, 0.0, 0.0, -12.07, -10.63, -11.44, -9.33, -9.38, -9.3, -9.8, -10.68, -11.62, -12.52, -11.84, -10.5, -9.55, -10.05, -10.05, -10.4, 0.0, 0.0, -8.85, -8.85, 0.0, 14.3, 13.86, 15.27, 12.01, 10.3, 8.83, 8.18, 8.3, 7.79, 8.05, 8.31, 6.73, 6.73, 4.81, 4.65, 4.9, 8.01, 12.65, 13.59, 13.99, 13.39, 11.06, 7.8, 4.62, 0.0, 0.0, 0.0, 0.0, 0.0, -0.92, -0.87, -0.95, 0.0, 0.86, 1.57, 1.51, 1.59, -3.53, -13.96, -13.8, -12.08, -11.39, -11.12, -9.76, -8.85, -11.6, 3.14, 4.81, -0.0, -12.72, -10.73, -6.94, -6.16, -5.99, -15.21, -15.6, -15.74, -15.6, -15.6, -15.6, -15.06, -14.51, -13.58, -12.65, -11.99, -12.14, -11.6, -12.24, -12.39, -11.87, -11.8, -11.97, -11.3, -10.84, -10.32, -10.0, -7.26, -8.22, -11.18, -10.0, -8.54, -9.3, -11.12, -11.13, -12.07, -13.86, -13.86, -12.07, -11.62, -11.18, -8.93, -7.15, 0.0, 12.52, 0.0, -12.52, -12.07, -0.0, 11.62, 12.96, 12.72, 12.79, 12.52, 12.02, 10.43, 10.43, 9.31, 9.02, 7.34, 6.95, 5.15, 3.18, 2.0, 3.96, 9.44, 14.79, 16.02, 13.97, 12.36, 10.13, 8.0, 5.98, 0.0, -4.52, -3.2, -2.21, -2.97, -2.8, -2.72, -2.55, -3.94, -3.42, -2.22, -1.58, 0.0, 1.65, -13.23, -15.65, -13.67, -12.72, -11.88, -9.8, -9.48, -0.0, -0.0, -0.0, -8.85, -12.96, -11.12, -8.01, -7.51, -7.28, -15.21, -15.21, -15.74, -15.74, -15.6, -15.6, -15.06, -14.29, -13.75, -13.02, -12.54, -12.54, -12.65, -12.66, -12.52, -12.96, -13.99, -13.63, -14.39, -14.53, -15.54, -15.61, -14.51, -11.87, -12.96, -4.8, -9.2, -7.87, -8.8, -12.31, -12.07, -9.34, -9.83, -9.7, -9.68, -11.55, -10.4, -8.22, 0.0, 0.0, -12.96, -12.52, -11.62, 0.0, 11.62, 11.62, 12.07, 11.2, 10.37, 10.47, 10.43, 11.38, 9.35, 8.53, 7.2, 4.75, 2.96, 0.0, 0.0, 4.24, 15.14, 16.96, 14.79, 14.39, 14.39, 14.3, 10.66, 7.26, 0.0, -5.6, -6.73, -6.18, -5.65, -4.8, -4.53, -4.0, -3.91, -5.0, -6.85, -5.46, -3.69, 0.0, 2.0, -16.99, -16.09, -13.19, -10.75, 0.0, 10.12, 0.0, -11.87, -12.14, -11.62, -12.52, -10.8, -9.84, -8.54, -9.17, -15.21, -15.21, -15.74, -15.74, -15.49, -15.33, -14.95, -14.03, -13.85, -12.93, -12.65, -12.65, -13.3, -12.27, -11.05, -11.3, -10.52, -11.62, -12.78, -13.51, -14.22, -14.75, -14.22, -15.65, -9.48, -0.0, -0.0, 0.0, -7.59, -9.96, -10.38, -8.93, 3.39, -0.0, -10.08, -10.58, -10.18, -6.45, -8.22, -11.45, -11.87, -10.8, 0.0, 11.62, 10.18, 10.08, 12.07, 10.41, 9.17, 7.69, 5.31, 6.14, 5.94, 5.53, 4.66, 4.17, 1.82, 0.0, -2.37, 13.15, 17.74, 17.39, 16.32, 15.61, 15.78, 17.19, 16.71, 14.0, 7.92, 0.0, -4.05, -6.2, -6.6, -6.29, -5.36, -3.39, -3.97, -6.6, -8.68, -7.6, -4.42, 0.0, 1.41, 0.0, 0.0, 0.0, 0.0, 4.81, 6.6, 0.0, -12.52, -10.4, -10.79, -11.62, -11.5, -10.37, -9.96, -9.17, -15.21, -15.35, -15.35, -15.74, -15.49, -15.33, -14.95, -14.4, -14.03, -13.48, -12.73, -13.02, -13.02, -12.54, -11.39, -10.13, -9.9, -10.55, -11.5, -12.56, -12.79, -11.52, -12.16, -13.99, -14.3, -0.0, 4.24, 10.37, 9.42, -0.0, -1.84, -0.0, 2.1, 4.6, -0.0, -2.02, -3.25, -4.15, -6.71, -6.71, -3.68, 3.68, 7.9, 8.8, 8.55, 10.18, 11.62, 8.53, 0.0, 0.0, 0.0, -2.63, -5.31, -4.81, -3.33, -3.01, 0.0, 2.83, 0.0, 11.45, 15.93, 16.15, 17.02, 16.09, 18.33, 19.64, 19.99, 19.76, 18.67, 17.7, 11.5, 3.45, -2.35, -3.68, -3.45, -4.32, -4.66, -5.09, -5.09, -4.01, 0.0, 0.0, -2.88, -2.52, 1.88, 0.0, 0.0, 0.0, 0.0, 0.0, -4.38, -10.4, -11.18, -11.62, -11.5, -10.79, -9.17, -6.0, -15.21, -15.35, -15.74, -15.74, -15.49, -15.49, -14.95, -14.57, -14.4, -13.85, -12.93, -12.73, -13.02, -12.82, -11.93, -10.39, -9.48, -9.48, -8.97, -9.8, -8.41, -5.14, -4.66, -5.99, -8.94, -14.3, -6.2, 2.28, 5.28, 3.04, -0.0, -0.0, -0.0, -0.0, 2.39, 2.39, -0.0, -4.6, -4.6, -2.6, -0.0, 4.6, 5.95, 8.55, 8.18, 9.2, 6.64, 0.0, 0.0, -8.85, -8.85, -8.53, -7.24, -8.53, -6.94, -6.44, -3.79, 0.0, 0.0, 13.86, 11.88, 15.34, 16.54, 16.99, 16.54, 16.54, 16.19, 16.1, 16.76, 17.31, 18.95, 17.45, 4.45, -2.02, -3.53, -5.99, -5.23, -3.42, 0.0, 0.0, -4.12, -8.51, -7.0, -6.29, 0.0, 0.0, 0.0, -3.59, 0.0, 0.0, 0.0, -2.19, -2.71, -8.85, -8.85, -9.17, -5.8, 0.0, -15.35, -15.35, -15.74, -15.74, -15.49, -15.88, -15.06, -14.68, -14.4, -13.85, -13.3, -12.73, -12.73, -12.73, -12.16, -11.23, -9.78, -9.4, -9.32, -8.31, -7.25, -6.79, -6.09, -6.73, -7.68, -9.8, -13.86, -4.38, -0.0, 2.2, -0.0, -0.0, -0.0, -0.0, -0.0, 4.6, -0.0, -4.4, -0.0, -0.0, 5.7, 5.95, 3.11, 3.11, 6.95, 8.8, 8.8, 7.27, -0.0, 0.0, -8.22, -6.2, -3.39, 0.0, 0.0, 0.0, -9.67, -8.05, -1.82, 14.51, 10.79, 9.17, 11.53, 12.79, 14.75, 15.2, 11.7, 0.0, 11.38, 16.09, 16.06, 13.4, 0.0, -6.94, -8.05, -3.24, 0.0, 0.0, 0.0, -6.31, -8.97, -10.87, -9.39, -7.11, -8.3, -4.37, -2.98, 0.0, 0.0, 0.0, -3.33, -4.24, -4.32, -4.65, -2.63, 0.0, 0.0, 0.0, -15.35, -15.35, -15.74, -15.74, -15.49, -15.88, -15.23, -15.06, -14.13, -13.85, -13.3, -12.73, -12.52, -12.37, -12.16, -11.8, -10.3, -9.8, -9.8, -9.4, -8.66, -7.73, -7.23, -7.48, -7.98, -8.68, -9.8, -13.44, -9.48, -0.0, -0.0, -0.0, -0.0, -0.0, 4.6, 4.96, 3.25, 4.6, 7.59, 4.6, 5.21, 6.64, 4.6, 6.95, 6.95, 6.64, 6.95, 9.2, 7.27, 7.27, 0.0, 0.0, 0.0, 10.73, 9.39, 0.0, -7.27, -6.45, 0.0, 11.06, 12.07, 8.22, 11.62, 0.0, 0.0, -12.96, -12.96, -15.2, 14.39, 13.91, 7.97, -3.09, -11.27, -18.21, -13.59, 12.96, 15.01, 11.73, 3.59, 0.0, -8.2, -11.0, -10.61, -9.22, -7.24, -7.9, -6.65, -3.56, -2.13, -2.72, -5.81, -6.67, -4.81, -2.2, 0.0, 0.0, -5.6, -5.6, -15.35, -15.35, -15.74, -15.74, -15.49, -15.49, -15.61, -15.06, -14.51, -13.94, -13.48, -13.01, -12.45, -11.87, -11.52, -11.52, -10.65, -9.72, -9.48, -8.78, -8.46, -7.73, -7.44, -7.03, -6.73, -5.63, -6.6, -7.16, -8.18, -11.9, -9.48, -0.0, -0.0, -0.0, 2.83, 6.64, 4.4, 5.95, 7.27, 4.4, 4.4, 4.0, 7.27, 6.32, 6.95, 8.8, 9.2, 9.2, 7.27, 10.28, 10.28, 10.73, 11.18, 10.73, 10.73, 0.0, 0.0, 7.59, 12.07, 12.96, 0.0, 0.0, 10.73, 10.73, 10.73, 0.0, -8.22, -11.62, -13.86, 0.0, -8.14, -15.25, -17.88, -19.51, -0.0, 18.78, 18.76, 17.19, 16.01, 14.66, 12.64, 7.8, -5.37, -10.75, -11.9, -9.67, -9.42, -6.67, -8.05, -7.13, -6.6, -6.9, -8.85, -6.67, -4.81, -2.93, -5.6, -5.6, -15.35, -15.35, -15.74, -15.74, -15.74, -15.49, -15.49, -15.06, -14.51, -14.13, -13.58, -13.01, -12.45, -11.87, -11.52, -10.65, -10.65, -10.06, -9.46, -8.17, -7.04, -6.99, -6.51, -5.71, -3.78, -3.28, -4.53, -4.81, -6.37, -7.82, -9.44, -13.41, -3.96, -0.0, 4.8, 7.27, 5.46, 3.25, -0.0, -0.0, -0.0, -0.0, 4.4, 7.27, 7.27, 7.27, 7.59, 10.28, 10.28, 10.28, 10.28, 10.28, 10.28, 10.28, 10.28, 9.2, 9.2, 9.6, 11.18, 0.0, 0.0, 0.0, 10.73, 8.93, 9.6, 9.83, 6.64, -8.55, -11.21, -12.52, -16.09, -19.67, -17.59, -12.87, 3.42, 15.19, 17.88, 15.92, 14.8, 14.26, 12.33, 11.17, 8.0, -12.72, -12.52, -12.52, -12.58, -10.37, -10.73, -11.17, -8.58, -7.78, -9.3, -9.42, -7.78, -5.8, -6.94, -6.94, -15.35, -15.35, -15.35, -15.35, -15.1, -15.49, -15.49, -15.06, -15.06, -14.51, -13.58, -13.58, -13.01, -12.09, -11.8, -11.25, -10.3, -10.06, -8.85, -7.51, -6.25, -6.6, -6.73, -6.42, -4.65, -4.87, -5.11, -6.2, -7.44, -8.31, -8.66, -9.84, -11.2, -8.53, 5.0, 8.93, 7.27, 2.6, -0.0, -0.0, -0.0, -0.0, -0.0, 5.0, 8.22, 7.59, 10.73, 10.28, 10.28, 10.28, 10.28, 10.28, 10.28, 10.28, 10.28, 9.75, 9.2, 7.9, 5.4, 0.0, 0.0, 0.0, 7.9, 8.18, 8.43, 8.4, 9.39, -3.25, -5.95, -6.4, -2.94, 0.0, 0.0, 0.0, 12.01, 11.06, 11.38, 3.24, 2.4, 4.79, 7.6, 5.51, 0.0, -5.6, -12.72, -13.01, -13.15, -12.79, -13.15, -13.23, -13.57, -9.48, -8.53, -9.08, -9.8, -7.36, -5.15, -5.15, -15.21, -15.21, -15.21, -15.21, -14.95, -15.49, -15.49, -15.23, -15.06, -14.23, -13.66, -13.58, -13.01, -12.45, -11.87, -10.65, -10.3, -10.23, -9.69, -8.37, -7.74, -7.82, -8.58, -8.78, -8.67, -8.67, -8.61, -9.06, -9.8, -9.59, -9.26, -9.36, -9.16, -10.8, 0.0, 10.73, 9.6, 4.8, -0.0, -0.0, -0.0, 2.6, 5.0, 7.9, 7.9, 8.22, 10.28, 10.28, 9.2, 8.8, 9.33, 9.75, 10.73, 11.18, 9.83, 9.54, 9.3, 7.59, 0.0, 0.0, 0.0, 0.0, 7.59, 7.59, 7.27, 7.27, 9.75, 7.9, 1.98, 4.24, 6.36, 6.55, 5.59, 2.5, -2.78, -10.59, -14.39, -12.36, -7.4, -2.79, 0.0, 2.34, 2.15, 0.0, -6.2, -9.48, -12.45, -12.71, -12.96, -12.27, -13.41, -8.05, -5.8, -9.17, -10.82, -7.82, -7.59, -7.59, -15.21, -15.21, -15.21, -15.21, -14.95, -14.95, -15.33, -15.06, -15.06, -14.59, -13.66, -13.09, -13.01, -12.45, -12.45, -11.28, -10.65, -10.3, -9.86, -10.3, -9.7, -9.42, -9.69, -10.06, -10.43, -10.12, -9.8, -10.28, -9.66, -9.4, -9.4, -9.08, -8.75, -8.22, -8.22, 0.0, 0.0, 10.73, 7.59, 5.0, 5.0, 5.0, 6.2, 9.66, 10.4, 8.53, 6.95, 7.27, 9.2, 9.75, 9.33, 9.75, 10.73, 11.18, 10.73, 9.97, 10.0, 10.0, 0.0, 0.0, -0.0, 5.0, 3.39, 3.53, 3.25, 7.59, 7.59, 12.07, 11.12, 11.09, 11.06, 10.17, 7.35, 1.47, -5.78, -13.49, -15.99, -15.45, -14.03, -10.75, -4.95, 0.0, 4.05, 4.71, 5.15, 3.25, 0.0, 4.24, 2.63, -11.71, -11.2, -6.9, -4.52, -6.0, -9.8, -8.85, -5.48, -5.48, -14.82, -15.21, -15.21, -15.21, -14.95, -14.95, -14.95, -14.95, -15.06, -14.23, -13.66, -13.09, -13.01, -12.45, -12.16, -11.87, -10.65, -10.35, -10.65, -11.03, -10.43, -9.5, -9.5, -9.8, -9.5, -9.46, -9.37, -8.76, -9.42, -10.04, -10.55, -10.16, -9.86, -9.67, -8.22, -5.0, 0.0, 0.0, 0.0, 11.18, 11.18, 11.18, 10.0, 11.71, 10.84, 10.41, 10.73, 8.8, 9.2, 9.75, 9.75, 10.18, 10.73, 11.18, 10.73, 11.18, 11.4, 12.27, 11.62, -0.0, 2.49, 2.6, 3.53, 3.53, 3.53, 7.9, 10.4, 12.07, 12.96, 14.47, 13.99, 15.27, 13.14, 14.48, -9.21, -11.72, -15.66, -16.99, -16.84, -15.27, -12.52, 0.0, 8.28, 11.68, 10.86, 11.16, 11.16, 11.17, 9.44, 0.0, -6.21, -6.9, -3.93, -4.52, -8.58, -10.12, 0.0, 0.0, -14.82, -14.82, -14.82, -14.95, -14.95, -14.95, -14.95, -14.95, -14.68, -14.51, -13.66, -13.09, -12.51, -12.16, -11.87, -11.87, -10.94, -10.65, -10.69, -10.44, -9.79, -8.86, -8.23, -8.24, -8.87, -8.81, -8.42, -8.56, -7.62, -8.85, -9.82, -9.67, -10.4, -9.97, -8.22, -8.22, -5.2, 0.0, 0.0, 5.2, 5.2, 10.4, 11.62, 11.62, 11.62, 11.18, 10.73, 9.39, 9.39, 10.28, 9.75, 10.18, 10.18, 11.18, 10.73, 10.73, 11.18, 12.96, 12.96, 6.64, 2.28, 2.49, 3.68, 8.22, 9.3, 10.0, 11.03, 11.18, 11.62, 12.52, 13.86, 12.64, 23.59, 12.39, -8.05, -9.26, -12.14, -14.05, -15.77, -16.27, -13.67, -11.06, 8.68, 11.06, 11.52, 10.65, 10.65, 10.12, 10.75, 10.01, 2.54, -6.0, -7.36, -5.31, -10.12, -10.12, 0.0, 0.0, -14.82, -14.82, -14.82, -14.82, -14.57, -14.57, -14.4, -14.4, -14.4, -14.13, -13.94, -13.09, -12.51, -12.16, -11.58, -11.28, -10.94, -10.69, -10.4, -10.13, -9.49, -8.18, -7.55, -7.19, -7.59, -8.15, -7.73, -8.2, -7.25, -6.96, -7.51, -7.73, -9.08, -7.9, -7.9, -6.2, -2.71, 0.0, 0.0, 2.82, 2.82, 3.68, 8.22, 11.03, 11.62, 11.18, 12.52, 11.18, 10.73, 11.18, 11.62, 10.6, 10.18, 10.18, 9.97, 9.97, 9.2, 11.71, 12.96, 10.4, 6.32, -0.0, -0.0, 11.03, 10.84, 11.84, 12.07, 12.52, 11.18, 11.18, -11.18, -14.54, -14.38, 28.16, 0.0, -13.41, -12.72, -11.92, -13.48, -13.89, -13.72, -13.88, -6.6, 0.0, 0.0, 3.58, 5.48, 10.43, 13.03, 14.07, 9.8, 4.24, -13.15, -12.39, -14.3, -14.3, 13.86, 13.86, -14.82, -14.82, -14.82, -14.82, -14.4, -14.4, -14.4, -14.4, -14.03, -13.85, -13.58, -13.09, -12.73, -12.16, -11.58, -11.28, -10.94, -10.94, -10.72, -10.45, -9.84, -8.83, -8.18, -7.13, -7.16, -6.76, -7.29, -7.6, -7.44, -6.65, -5.8, -5.8, -5.08, -5.77, -4.4, -3.39, -1.84, 0.0, 0.0, 1.64, 1.91, 2.28, 5.0, 7.9, 9.3, 10.41, 11.28, 10.41, 9.54, 9.64, 10.73, 12.52, 10.18, 10.18, 9.75, 9.75, 8.55, 8.18, 10.4, 8.85, 0.0, 0.0, 9.83, 10.73, 11.4, 11.84, 12.07, 12.07, 12.07, 0.0, -10.73, -10.18, -6.02, 0.0, 3.92, 3.38, 0.0, -9.39, -11.9, -9.48, -10.82, -11.88, -10.73, -9.48, -8.18, -4.66, 6.6, 14.31, 15.2, 15.65, 15.19, 11.33, 0.0, -10.43, -6.0, -0.0, 13.86, 13.86, -14.29, -14.29, -14.29, -14.29, -14.03, -14.03, -14.03, -13.85, -13.85, -13.48, -13.21, -13.01, -12.73, -12.51, -11.58, -10.99, -11.28, -10.99, -10.72, -10.75, -9.84, -9.48, -8.43, -7.76, -6.88, -6.46, -6.76, -6.87, -6.87, -6.67, -5.48, -5.11, -4.49, -3.82, -3.06, -2.19, -1.07, 0.0, 0.0, 1.23, 1.39, 1.64, 3.53, 5.0, 7.59, 9.6, 10.4, 9.2, 9.13, 9.13, 11.02, 11.18, 12.52, 11.45, 9.3, 8.93, 8.55, 8.18, 4.6, 0.0, 0.0, 2.93, 5.21, 9.54, 11.18, 12.07, 12.52, 12.52, 12.96, 0.0, -10.04, -8.58, -3.04, 0.0, 7.03, 13.09, 10.38, -2.53, -9.67, -9.67, -9.48, -9.8, -10.75, -9.8, -10.12, 0.0, 15.2, 14.75, 14.75, 15.2, 16.12, 12.24, 9.49, -15.65, -0.0, 14.3, 11.53, 11.53, -14.29, -14.29, -14.29, -14.29, -14.03, -14.03, -13.85, -13.85, -13.48, -13.3, -12.93, -13.01, -12.51, -12.51, -11.63, -11.33, -10.99, -10.72, -10.72, -10.43, -10.13, -9.49, -8.83, -8.16, -7.5, -6.88, -6.72, -6.57, -6.36, -5.8, -6.1, -5.02, -4.65, -3.82, -3.32, -2.44, -1.77, -0.93, 0.0, 0.0, 0.0, 1.28, 1.44, 3.39, 5.29, 6.71, 8.94, 8.23, 7.87, 9.13, 10.52, 11.18, 10.14, 9.75, 9.3, 7.59, 5.95, 5.7, 2.28, 3.25, 12.07, 7.9, 7.9, 9.6, 12.14, 11.62, 12.07, 12.96, 12.96, -9.17, -10.79, -9.48, -6.6, -1.54, 6.36, 14.29, 9.69, 2.44, -9.13, -9.54, -9.86, -9.76, -10.86, -10.12, -13.86, 10.43, 15.65, 15.65, 15.2, 14.75, 14.75, 10.33, 9.36, 5.23, 4.81, 11.9, 10.12, 10.12, -13.9, -13.9, -13.9, -13.9, -13.75, -13.48, -13.48, -13.48, -13.48, -12.93, -12.93, -12.73, -12.45, -12.16, -11.63, -11.36, -11.03, -10.72, -10.43, -10.13, -9.84, -9.22, -8.85, -8.18, -7.5, -7.1, -6.68, -6.0, -5.6, -5.33, -4.77, -4.84, -4.24, -3.82, -3.11, -2.44, -1.64, -0.86, 0.0, 0.0, 0.0, 0.0, 1.23, 2.82, 3.87, 4.8, 4.6, 6.17, 7.87, 9.2, 10.96, 10.73, 10.73, 9.55, 8.38, 6.45, 3.53, 2.6, 4.6, 4.6, 9.3, 11.18, 10.0, 10.8, 11.03, 12.52, 13.41, 0.0, -12.07, -11.6, -7.93, -8.58, -8.59, -8.66, -5.64, -2.17, 0.0, 0.0, -13.44, -10.14, -10.27, -9.4, -9.97, -10.73, -8.85, 4.38, 10.43, 15.34, 15.65, 14.75, 10.43, 3.79, 7.4, 7.6, 7.4, 8.68, 8.43, 8.43, -13.75, -13.75, -13.75, -13.75, -13.75, -13.48, -13.48, -12.93, -12.93, -12.93, -12.37, -12.37, -12.09, -11.87, -11.92, -11.36, -11.03, -10.43, -10.13, -9.82, -9.21, -8.86, -8.58, -8.2, -7.53, -6.88, -6.22, -6.0, -5.36, -5.08, -4.37, -4.6, -4.24, -3.6, -2.99, -2.28, -1.64, -0.8, -0.86, 0.0, 0.0, 0.0, 1.23, 2.93, 2.93, 5.1, 3.7, 3.65, 5.7, 9.2, 10.84, 10.73, 10.28, 9.97, 8.58, 7.59, 5.4, 6.45, 4.8, 6.71, 7.9, 11.18, 11.45, 12.52, 12.07, 12.96, 13.59, 12.52, -11.62, -11.62, -9.8, -2.43, -3.36, -8.73, -12.07, -14.19, -12.15, -7.14, -13.28, -16.48, -10.35, -8.03, -8.85, -6.21, 5.8, 12.72, 12.72, 8.18, 10.75, 0.0, 0.0, 0.0, 2.57, 6.66, 8.13, 9.42, 8.77, 8.77, -13.36, -13.36, -13.36, -13.75, -13.75, -13.36, -12.93, -12.93, -12.56, -12.37, -12.37, -11.8, -11.8, -11.87, -11.58, -11.36, -11.03, -10.45, -10.13, -9.82, -9.21, -8.86, -8.22, -7.55, -7.55, -6.9, -6.46, -5.8, -5.36, -4.86, -4.33, -4.37, -4.02, -3.28, -2.82, -2.99, -2.28, -1.58, -1.58, -0.82, -0.89, 0.0, 0.0, 1.33, 3.07, 5.2, 5.0, 3.25, 4.6, 9.3, 10.84, 9.97, 10.28, 9.75, 9.6, 8.58, 6.95, 7.9, 6.97, 5.0, 5.95, 10.0, 0.0, -0.0, 10.8, 12.14, 13.41, 14.3, 0.0, -9.83, -10.18, -3.25, 0.0, -2.79, -9.92, -13.59, -12.46, -10.13, -5.8, -7.47, -14.86, -10.01, -6.45, 2.45, 6.76, 8.94, 8.31, 0.0, -0.0, -4.66, -0.0, 0.0, 0.0, 3.79, 5.98, 8.47, 8.47, 8.47, -13.62, -13.62, -13.36, -13.36, -13.2, -13.2, -13.2, -12.82, -12.65, -12.37, -12.0, -11.8, -11.8, -11.8, -11.28, -11.33, -11.03, -10.45, -10.13, -9.5, -9.21, -8.86, -8.22, -7.83, -6.9, -6.9, -6.5, -5.83, -4.86, -4.86, -4.33, -4.33, -3.82, -4.02, -3.28, -2.71, -2.19, -2.19, -1.52, -1.52, -0.89, -0.97, 0.0, 0.0, 1.52, 0.0, 2.93, 2.95, 5.29, 6.71, 8.58, 9.2, 9.75, 10.73, 10.18, 9.6, 8.82, 10.4, 8.93, 6.2, 2.71, -0.0, -0.0, 6.45, 10.04, 10.4, 10.4, 12.96, 5.4, 0.0, -6.01, -5.0, 0.0, 4.78, 0.0, -7.56, -10.08, -8.68, -8.03, -6.22, -12.15, -15.38, 0.0, 7.44, 6.73, 5.92, 4.11, 2.81, 0.0, -0.0, 4.66, 10.43, 6.8, 5.81, 5.49, 6.54, 6.9, 6.9, -13.47, -13.47, -13.2, -13.2, -13.2, -12.82, -12.82, -12.65, -12.27, -12.27, -11.8, -11.8, -11.44, -11.23, -11.28, -10.99, -11.03, -10.45, -10.13, -9.84, -9.5, -8.86, -8.22, -7.83, -7.16, -6.92, -6.27, -5.86, -5.43, -4.43, -4.86, -4.33, -4.54, -3.82, -3.41, -3.28, -2.71, -2.06, -2.1, -1.52, -1.56, -0.89, 0.0, 0.0, 0.0, 0.0, 1.39, 2.95, 4.8, 5.0, 5.52, 6.17, 7.59, 9.6, 10.28, 9.2, 10.38, 10.6, 9.86, 8.55, 6.7, 3.68, 3.68, 9.3, 9.67, 10.0, 8.55, 8.22, 0.0, 0.0, 0.0, 0.0, -9.8, 0.0, 3.4, -1.23, -6.9, -8.59, -7.69, -6.64, -4.82, -2.94, 3.07, 5.81, 4.66, 3.42, 3.52, 2.64, 0.0, 9.8, 12.39, 12.79, 14.75, 8.43, 6.8, 5.49, 5.09, 5.09, -13.09, -13.09, -12.82, -12.82, -12.82, -12.65, -12.27, -12.27, -12.27, -12.09, -11.72, -11.44, -11.23, -11.23, -10.94, -10.94, -10.72, -10.72, -10.43, -9.84, -9.5, -8.85, -8.2, -7.55, -7.31, -6.92, -6.53, -6.08, -5.65, -5.8, -5.2, -4.6, -4.6, -4.02, -3.41, -3.28, -2.66, -2.71, -2.19, -2.1, -1.56, -0.89, -0.97, 0.0, 0.0, 0.0, 1.33, 2.49, 2.95, 2.95, 3.25, 3.82, 5.0, 5.95, 9.2, 10.73, 10.52, 10.18, 9.75, 9.86, 8.38, 7.59, 10.4, 10.18, 10.0, 9.3, 7.59, 7.27, 0.0, 0.0, 8.53, 11.18, -11.62, -10.05, -5.52, -1.58, -5.48, -11.62, 0.0, 0.0, 1.34, 2.79, 3.24, 3.24, 1.1, 1.03, 1.0, 1.01, 0.0, 0.0, 12.96, 13.41, 13.86, 7.93, 5.31, 5.99, 5.34, 5.34, -13.09, -13.09, -12.82, -12.27, -12.27, -12.27, -12.27, -12.09, -11.72, -11.72, -11.72, -11.23, -11.23, -10.88, -10.65, -10.69, -10.36, -10.12, -9.82, -10.13, -9.5, -9.22, -8.58, -8.2, -7.55, -7.16, -6.53, -6.08, -6.08, -5.65, -5.2, -4.66, -4.66, -4.24, -4.24, -3.47, -3.47, -2.82, -2.06, -2.1, -1.52, -1.56, -0.89, 0.0, 0.0, 0.0, 0.0, 1.14, 1.33, 2.95, 1.52, 1.84, 2.1, 2.49, 5.7, 9.75, 10.28, 9.83, 10.14, 10.18, 10.41, 10.0, 10.0, 11.18, 9.75, 8.93, 7.59, 5.95, 5.2, 8.85, 12.52, 11.2, 0.0, -9.33, -11.15, -5.94, 0.0, 7.0, 7.34, 4.52, 2.28, 1.1, 0.0, 0.0, 0.0, 0.0, 0.0, 0.95, 1.77, 3.25, 8.85, 12.52, 8.85, 6.0, 3.25, 4.66, 5.99, 5.99, -12.7, -12.7, -12.54, -12.27, -12.27, -12.27, -11.72, -11.72, -11.72, -11.72, -11.52, -10.88, -10.88, -10.88, -10.65, -10.09, -10.09, -10.09, -9.8, -9.82, -9.5, -9.5, -8.58, -8.2, -7.55, -6.9, -6.27, -6.53, -6.08, -5.6, -5.14, -5.2, -4.66, -4.08, -4.08, -3.47, -3.47, -2.99, -2.88, -2.34, -1.52, -1.56, -0.85, 0.0, 0.0, 0.0, 0.0, 0.0, 1.14, 1.33, 1.33, 1.58, 1.76, 2.02, 2.6, 5.7, 9.54, 9.83, 9.83, 9.75, 8.8, 9.67, 9.6, 10.0, 11.18, 5.0, 5.95, 6.2, 6.2, 8.53, 11.2, 12.39, 0.0, -3.52, -6.91, -2.51, 3.79, 7.35, 6.81, 4.1, 0.0, -1.0, -3.07, -3.42, -1.42, 0.0, 1.13, 2.09, 3.68, 5.6, 4.65, 3.96, 0.0, 0.0, 4.1, 5.8, 6.6, 6.6, -12.54, -12.54, -12.54, -12.16, -11.9, -11.72, -11.72, -11.72, -11.35, -11.16, -11.16, -10.88, -10.65, -10.3, -10.3, -10.06, -9.77, -9.77, -9.8, -9.5, -9.5, -9.21, -8.86, -8.2, -7.55, -6.9, -6.5, -6.27, -6.08, -5.6, -5.86, -5.14, -4.66, -4.73, -4.15, -3.53, -3.53, -2.88, -2.34, -2.34, -1.63, -1.63, -0.85, 0.0, 0.0, 0.0, 0.0, 0.0, 0.0, 0.0, 0.0, 0.0, 0.0, 0.0, 2.02, 4.4, 8.18, 9.54, 9.83, 10.14, 9.75, 7.67, 7.59, 9.2, 10.28, 7.9, 5.7, 7.59, 9.3, 7.9, 11.6, 12.96, 8.68, 2.58, 0.0, -1.24, 1.24, 4.77, 4.42, 1.74, 0.0, -2.97, -4.81, -4.81, 0.0, 2.54, 4.1, 3.96, 5.6, 5.11, 5.8, 4.1, 0.0, 0.0, 5.6, 4.1, 7.13, 7.13, -12.16, -12.16, -12.16, -12.16, -11.72, -11.72, -11.72, -11.35, -11.16, -11.16, -11.16, -10.88, -10.3, -10.3, -10.06, -10.06, -9.77, -9.48, -9.48, -9.19, -9.5, -9.21, -8.59, -8.59, -8.22, -7.31, -6.9, -6.5, -5.83, -5.4, -5.65, -5.14, -4.84, -4.66, -4.15, -3.53, -3.76, -3.07, -2.34, -2.51, -1.76, -1.76, -0.93, 0.0, 0.0, 0.0, 0.0, 0.0, 0.0, 0.0, 0.0, 0.0, 0.0, 0.0, 1.93, 2.39, 6.95, 7.81, 9.83, 9.83, 9.33, 8.91, 9.2, 8.8, 10.73, 11.18, 8.8, 8.55, 8.93, 10.18, 10.4, 12.96, 13.02, 6.59, 2.61, -1.37, -3.98, -3.82, -5.12, -4.18, -2.93, -2.38, -2.63, 0.0, 10.8, 5.8, 4.98, 5.8, 5.8, 5.11, 3.56, 3.68, 2.2, 0.0, 0.0, 4.1, 3.25, 6.0, -12.16, -12.16, -12.16, -11.99, -11.99, -11.35, -11.35, -11.16, -11.16, -11.16, -11.16, -10.59, -10.3, -10.06, -10.06, -10.06, -10.06, -9.17, -9.17, -9.48, -9.19, -8.59, -8.87, -8.87, -7.96, -7.57, -7.16, -6.25, -5.83, -5.17, -5.4, -5.14, -4.84, -4.66, -4.32, -4.15, -3.76, -3.07, -3.29, -2.41, -2.6, -1.76, -1.84, 0.0, 0.0, 0.0, -0.93, -1.02, -1.02, -1.18, -1.14, 0.0, 0.0, 0.0, 0.0, 1.84, 4.2, 6.64, 8.91, 9.83, 9.7, 8.91, 10.18, 9.39, 9.83, 10.73, 10.73, 9.75, 10.18, 10.6, 10.0, 9.17, 10.43, 3.78, 5.53, 3.22, -4.05, -9.49, -11.14, -8.61, -5.65, -2.5, 0.0, 8.18, 9.8, 6.0, 4.38, 3.81, 3.68, 3.25, 3.25, 3.25, 1.9, 2.2, 0.0, 0.0, 0.0, 3.25, -12.16, -12.16, -11.99, -11.62, -11.62, -11.35, -11.16, -11.16, -11.16, -10.8, -10.59, -10.59, -10.59, -9.72, -9.72, -9.72, -9.46, -9.17, -9.17, -8.87, -8.58, -8.87, -8.59, -8.23, -8.23, -7.85, -7.32, -6.92, -6.5, -5.83, -5.4, -5.14, -5.14, -4.84, -4.32, -4.32, -3.76, -3.76, -3.29, -2.6, -2.6, -2.71, -1.84, -1.93, -1.64, -0.89, -0.97, -2.1, -2.23, -1.14, -1.22, -1.22, 0.0, 0.0, 0.0, 1.84, 4.0, 6.32, 8.91, 9.39, 9.64, 8.91, 7.45, 9.83, 10.28, 10.28, 9.83, 9.75, 10.18, 10.6, 11.18, 0.0, 0.0, 0.0, 6.22, 13.31, 9.99, -2.28, -8.2, -8.31, -6.51, 0.0, 4.24, 6.65, 5.11, 3.81, 3.47, 1.83, 1.77, 1.38, 1.53, 0.0, 0.0, 0.0, 0.0, 0.0, 0.0, 0.0, -11.62, -11.62, -11.62, -11.62, -11.62, -11.44, -11.16, -10.8, -10.8, -10.59, -10.59, -10.59, -10.01, -9.72, -9.72, -9.72, -9.46, -9.46, -8.87, -8.87, -8.87, -8.58, -8.58, -8.24, -7.96, -7.59, -7.59, -7.19, -6.27, -5.83, -5.17, -5.2, -4.95, -4.66, -4.92, -4.32, -3.91, -3.76, -3.29, -3.16, -2.6, -2.49, -2.71, -2.95, -2.83, -1.58, -2.02, -2.23, -2.39, -1.22, -1.16, -1.33, -1.33, 0.0, 0.0, 0.0, 2.06, 4.96, 6.32, 9.39, 9.11, 8.72, 10.18, 9.83, 9.83, 10.28, 9.83, 10.18, 9.75, 10.6, 11.03, 0.0, -12.96, -9.8, 4.95, 10.2, 15.32, 10.13, 0.0, -5.8, -4.66, 6.6, 6.88, 5.16, 3.25, 2.48, 0.0, 0.0, 0.0, 0.0, 0.0, 0.0, -1.53, -1.53, -1.66, -2.13, -2.54, -2.54, -11.62, -11.62, -11.62, -11.62, -11.44, -11.07, -10.8, -10.8, -10.59, -10.59, -10.23, -10.23, -10.01, -10.01, -9.72, -9.46, -9.46, -9.46, -9.46, -8.56, -8.56, -8.56, -8.24, -8.24, -8.24, -7.87, -7.6, -6.94, -6.94, -6.53, -5.62, -5.2, -4.72, -4.95, -4.66, -4.32, -4.58, -3.91, -4.01, -3.29, -3.39, -3.39, -2.71, -2.71, -2.82, -2.82, -1.84, -0.98, -1.04, -1.16, -1.16, -1.26, -1.26, 0.0, 0.0, 0.0, 1.95, 2.06, 2.83, 8.94, 9.11, 8.3, 7.89, 9.83, 9.83, 9.83, 10.28, 9.75, 8.55, 9.3, 11.03, -0.0, -12.96, -12.52, -13.19, -3.9, 1.98, 7.14, 8.91, 8.8, 10.91, 10.25, 7.56, 5.21, 3.25, 1.15, 0.0, -2.02, -3.58, -3.1, -3.1, -4.52, -4.87, -4.71, -3.56, -4.81, -4.81, -4.81, -11.62, -11.62, -11.62, -11.07, -11.07, -11.07, -10.8, -10.59, -10.59, -10.23, -10.23, -10.01, -10.01, -10.01, -9.72, -9.46, -9.13, -9.13, -9.13, -8.85, -8.56, -8.24, -8.24, -7.96, -7.6, -7.6, -7.6, -7.22, -6.96, -6.29, -5.86, -5.4, -5.2, -4.95, -5.2, -4.92, -4.58, -4.58, -4.17, -4.01, -3.29, -3.39, -3.39, -3.67, -2.82, -2.94, -1.92, -1.93, -1.04, -0.99, -1.11, -1.26, 0.0, 0.0, 0.0, 0.0, 0.0, 0.0, 0.0, 6.32, 8.67, 8.3, 8.77, 10.73, 9.83, 9.83, 10.28, 10.18, 8.55, 9.3, 9.3, 7.59, -11.62, -12.96, -11.99, -10.75, -4.34, 1.69, 9.2, 13.37, 14.48, 13.38, 9.48, 6.81, 4.4, 2.28, 0.0, -2.35, -6.4, -6.4, -5.46, -5.46, -6.88, -6.65, -7.19, -7.78, -7.78, -7.78, -11.5, -11.5, -11.07, -11.07, -11.07, -11.07, -10.59, -10.23, -10.23, -10.23, -10.01, -10.01, -10.01, -10.01, -9.13, -9.13, -9.13, -9.13, -8.85, -8.85, -8.53, -8.24, -7.95, -7.89, -7.6, -7.6, -7.6, -7.22, -7.22, -6.56, -6.56, -5.86, -5.2, -5.44, -4.95, -4.66, -4.92, -4.58, -4.17, -4.01, -4.01, -3.39, -3.39, -3.67, -3.67, -2.82, -3.08, -2.02, -1.93, -2.13, -1.04, -1.16, -1.26, 0.0, 0.0, 0.0, 0.0, 0.0, 0.0, 3.8, 8.49, 8.77, 8.77, 8.49, 10.73, 9.83, 9.83, 7.81, 8.23, 8.93, 10.4, 10.28, 0.0, -11.2, -9.48, -6.4, 0.0, 1.66, 5.87, 12.93, 18.19, 17.34, 12.42, 6.97, 5.37, 5.19, 2.89, 0.0, -6.6, -8.38, -8.58, -8.85, -9.17, -8.1, -7.78, -8.85, -8.85, -8.85, -11.5, -11.5, -11.07, -11.07, -11.07, -10.87, -10.23, -10.23, -10.23, -10.01, -10.01, -10.01, -10.01, -9.66, -9.42, -9.13, -9.13, -9.13, -8.85, -8.85, -8.24, -8.24, -8.24, -7.61, -7.89, -7.89, -7.22, -7.22, -7.51, -7.24, -6.56, -6.12, -5.89, -5.44, -4.95, -5.2, -4.92, -4.58, -4.58, -4.17, -4.01, -4.01, -3.53, -3.67, -3.67, -3.67, -3.08, -2.95, -2.02, -2.13, -2.13, -1.16, -1.16, -1.26, 0.0, 0.0, 0.0, 0.0, -1.95, 0.0, 8.49, 8.49, 8.94, 9.39, 8.94, 10.28, 9.83, 8.48, 8.18, 8.55, 7.27, 7.59, 0.0, 0.0, 0.0, 0.0, 0.0, 2.0, 4.7, 12.01, 17.28, 17.11, 11.74, 8.85, 7.92, 5.65, 3.24, 0.0, -5.31, -11.53, -9.48, -8.53, -10.01, -10.41, -10.41, -11.71, -11.71, -11.71, -11.5, -11.5, -11.34, -11.07, -10.7, -10.51, -10.23, -10.23, -10.23, -10.01, -10.01, -10.01, -9.66, -9.42, -9.42, -9.13, -9.13, -8.85, -8.85, -8.85, -8.24, -8.24, -8.24, -7.9, -7.61, -7.89, -7.51, -7.51, -7.51, -6.84, -6.84, -6.84, -6.16, -5.44, -4.95, -5.2, -4.66, -4.92, -4.58, -4.4, -4.01, -4.01, -4.3, -3.53, -3.67, -3.67, -3.08, -2.95, -2.95, -3.25, -2.13, -2.04, -1.16, -1.26, 0.0, 0.0, 0.0, -1.58, -1.58, 0.0, 8.05, 8.49, 8.49, 8.94, 8.94, 9.83, 9.39, 9.39, 6.95, 4.4, 7.27, 7.9, -0.0, 0.0, 0.0, 9.48, 4.52, 2.5, 7.98, 11.7, 12.47, 12.71, 11.92, 12.81, 11.53, 6.81, 2.57, 0.0, 0.0, 0.0, -12.52, -12.52, -11.45, -11.45, -11.71, -12.07, -12.07, -12.07, -11.34, -11.34, -11.34, -10.7, -10.51, -10.51, -10.23, -10.23, -10.23, -10.01, -10.01, -9.66, -9.66, -9.42, -9.42, -9.42, -9.13, -8.85, -8.85, -8.53, -8.24, -8.24, -8.24, -8.24, -7.9, -8.2, -7.51, -7.51, -6.84, -6.84, -6.84, -6.16, -6.16, -5.7, -5.7, -5.2, -4.66, -4.73, -4.73, -4.4, -4.4, -4.01, -4.01, -4.3, -3.82, -3.67, -3.98, -2.95, -2.95, -3.25, -3.11, -2.13, -2.28, -1.11, -1.47, -1.4, 0.0, -1.32, -1.58, 0.0, 7.21, 8.05, 8.49, 8.94, 8.94, 10.28, 9.83, 9.39, 8.8, 6.95, 7.27, 4.8, -0.0, -0.0, 0.0, 0.0, 0.0, 6.4, 10.43, 12.02, 10.76, 10.14, 14.94, 17.76, 16.35, 12.59, 10.75, -0.0, 3.14, 8.85, -0.0, -8.53, -11.03, -11.18, -11.18, -10.41, -10.41, -10.41, -11.34, -11.34, -10.96, -10.96, -10.51, -10.51, -10.51, -10.23, -10.01, -10.01, -10.01, -9.66, -9.66, -9.42, -9.42, -9.42, -9.13, -8.85, -8.53, -8.53, -8.24, -8.24, -8.24, -7.9, -7.9, -7.9, -7.54, -7.54, -6.84, -6.84, -6.4, -6.45, -6.45, -6.45, -5.98, -5.2, -5.0, -4.48, -4.73, -4.15, -4.4, -4.4, -4.01, -4.3, -4.3, -3.82, -3.67, -3.98, -3.82, -3.25, -3.11, -3.11, -2.28, -2.17, -1.26, -1.4, -1.4, -1.32, 0.0, 0.0, 5.69, 7.6, 8.05, 8.49, 8.49, 8.48, 8.48, 9.39, 9.39, 9.33, 6.95, 4.6, -0.0, -0.0, -0.0, 0.0, 0.0, 11.99, 12.79, 12.27, 11.06, 10.89, 14.22, 18.45, 16.63, 13.13, -3.39, -2.82, -0.0, 6.94, 5.4, -5.2, -7.59, -9.2, -8.8, -8.72, -8.72, -8.72, -11.34, -10.96, -10.96, -10.96, -10.7, -10.51, -10.51, -10.23, -10.01, -10.01, -9.66, -9.66, -9.66, -9.42, -9.42, -9.42, -9.42, -8.85, -8.53, -8.53, -8.53, -8.24, -8.24, -7.9, -8.21, -7.9, -7.54, -7.54, -7.14, -7.14, -6.45, -6.45, -6.45, -5.75, -5.75, -5.75, -5.26, -5.26, -4.73, -4.73, -4.15, -4.4, -4.68, -4.01, -4.3, -4.62, -3.67, -3.98, -3.82, -4.18, -3.25, -3.11, -3.3, -2.46, -2.46, -1.2, -1.4, -1.32, 0.0, 0.0, 0.0, 6.8, 7.6, 8.05, 8.05, 8.48, 6.32, 8.91, 9.39, 9.83, 8.8, 4.4, -0.0, -0.0, -0.0, -0.0, -0.0, 12.96, 13.86, 13.19, 11.52, 11.33, 11.88, 11.53, 11.43, -16.79, -7.93, -5.21, -4.36, -2.19, -0.0, -10.4, -10.0, -9.6, -9.55, -8.43, -8.43, -8.43, -10.96, -10.96, -10.96, -10.96, -10.7, -10.51, -10.51, -10.23, -10.01, -10.01, -9.66, -9.66, -9.66, -9.42, -9.42, -9.42, -9.42, -8.82, -8.82, -8.53, -8.53, -8.24, -8.24, -8.21, -8.21, -8.21, -7.85, -7.54, -7.14, -6.87, -6.45, -6.45, -6.2, -5.75, -5.75, -5.75, -5.75, -5.26, -5.26, -4.73, -4.73, -5.0, -4.4, -4.68, -5.0, -4.3, -4.44, -4.8, -3.98, -3.82, -4.18, -3.11, -3.45, -2.46, -2.46, -2.33, -2.33, -1.32, -1.32, 0.0, 0.0, 5.37, 7.6, 7.6, 7.6, 5.72, 6.64, 6.64, 8.4, 9.83, 9.2, 7.27, 7.27, 9.83, -0.0, -8.22, -8.85, 0.0, 13.41, 13.15, 11.44, 11.17, 10.12, 7.6, 2.71, -19.51, -12.87, -8.53, -6.7, -7.06, -8.94, -10.84, -11.4, -10.38, -9.2, -5.9, -5.9, -5.9, -10.96, -10.96, -10.96, -10.96, -10.96, -10.51, -10.51, -10.51, -10.01, -10.01, -9.66, -9.66, -9.66, -9.42, -9.42, -9.42, -9.42, -8.82, -8.82, -8.82, -8.82, -8.24, -8.24, -8.21, -8.21, -8.21, -7.85, -7.56, -7.18, -6.87, -6.45, -6.2, -6.2, -5.75, -6.04, -6.04, -6.04, -5.54, -5.26, -5.26, -4.73, -4.73, -5.0, -4.68, -4.68, -5.0, -4.44, -4.44, -4.8, -3.82, -4.18, -3.99, -3.45, -3.14, -3.52, -2.33, -2.33, -2.69, -1.32, -1.32, 0.0, 4.22, 7.21, 7.6, 7.6, 5.37, 2.97, 2.97, 4.4, 6.64, 6.95, -0.0, 0.0, 10.28, 0.0, -11.18, -12.07, 0.0, 12.96, 12.3, 11.99, 11.09, 9.22, 4.15, 3.06, -16.37, -16.05, -10.37, -7.56, -6.88, -9.48, -11.02, -11.4, -9.3, -7.59, -6.17, -6.17, -6.17, -10.96, -10.96, -10.96, -10.96, -10.96, -10.51, -10.51, -10.51, -10.01, -10.01, -9.66, -9.66, -9.66, -9.42, -9.42, -9.42, -9.08, -9.08, -8.82, -8.82, -8.82, -8.53, -8.53, -8.21, -7.91, -7.56, -7.56, -7.56, -7.18, -7.18, -6.5, -6.5, -6.5, -6.04, -6.04, -6.04, -6.04, -6.04, -5.54, -5.26, -5.26, -5.0, -5.0, -5.0, -4.68, -5.0, -5.0, -4.44, -4.8, -4.6, -4.18, -3.99, -4.2, -3.14, -3.52, -3.35, -2.33, -2.33, -1.32, 0.0, 0.0, 3.4, 5.37, 6.8, 7.6, 4.22, 2.4, -0.0, -0.0, -0.0, -0.0, -0.0, -0.0, 0.0, 10.28, 0.0, 0.0, 12.07, 11.2, 11.87, 12.3, 12.39, 8.2, 10.71, 16.09, -16.79, -12.65, -5.8, -4.48, -5.98, -8.41, -10.0, -10.0, -7.9, -7.59, -7.27, -7.27, -7.27, -10.96, -10.96, -10.96, -10.96, -10.96, -10.79, -10.51, -10.51, -10.3, -10.01, -9.66, -9.66, -9.66, -9.42, -9.42, -9.42, -9.08, -9.08, -8.82, -8.82, -8.82, -8.53, -8.53, -7.91, -7.91, -7.91, -7.56, -7.56, -7.27, -6.9, -6.9, -6.5, -6.5, -6.04, -6.04, -6.04, -6.04, -6.04, -5.54, -5.54, -5.54, -5.54, -5.0, -5.0, -5.3, -5.0, -5.0, -5.14, -4.44, -4.8, -4.6, -4.18, -4.2, -4.2, -3.14, -3.35, -3.35, -2.69, -1.32, 0.0, 0.0, 1.84, 2.4, 3.4, 5.69, 5.69, 1.58, 1.14, -0.0, -0.0, -0.0, -0.0, -0.0, -0.0, 0.0, 0.0, 0.0, 0.0, 12.52, 11.2, 11.87, 12.72, 11.73, 15.08, 24.39, -0.0, -0.0, 7.59, -0.0, -5.0, -7.36, -9.67, -9.3, -8.94, -8.94, -7.87, -7.87, -7.87, -10.96, -10.96, -10.96, -10.96, -10.96, -10.79, -10.51, -10.51, -10.51, -10.01, -9.66, -9.66, -9.66, -9.42, -9.42, -9.08, -9.08, -9.08, -9.08, -8.82, -8.5, -8.22, -8.22, -7.91, -7.91, -7.91, -7.58, -7.58, -7.58, -7.22, -6.9, -6.9, -6.5, -6.5, -6.04, -6.04, -6.04, -6.04, -5.54, -5.54, -5.54, -5.54, -5.32, -5.09, -5.09, -5.41, -4.8, -4.8, -5.14, -4.8, -4.6, -4.99, -4.2, -4.2, -4.0, -3.52, -3.35, -2.69, -2.54, -1.58, 0.0, 0.0, 0.0, 0.0, 0.0, 0.0, -0.0, 1.2, -0.0, -0.0, -0.0, -0.0, -0.0, -0.0, 0.0, 10.28, 0.0, 0.0, 0.0, 12.07, 12.52, 10.12, 10.73, 10.81, 0.0, 0.0, 11.38, 11.03, 3.53, -4.4, -7.65, -8.93, -9.3, -10.4, -8.94, -8.55, -8.55, -8.55, -11.22, -11.22, -10.96, -10.96, -10.96, -10.79, -10.79, -10.51, -10.51, -9.94, -9.66, -9.66, -9.66, -9.42, -9.42, -9.08, -9.08, -9.08, -9.37, -9.12, -8.5, -8.5, -8.22, -8.22, -7.91, -7.6, -7.9, -7.58, -7.58, -7.58, -7.22, -7.22, -7.22, -6.24, -6.24, -5.8, -6.04, -6.04, -6.04, -5.54, -5.54, -5.32, -5.62, -5.09, -5.09, -5.41, -4.8, -4.8, -5.14, -5.14, -4.6, -4.78, -3.81, -4.2, -4.0, -4.44, -3.35, -3.8, -2.69, -1.58, -1.58, 0.0, 0.0, 0.0, 0.0, 0.0, 0.0, -0.0, -0.0, -0.0, -0.0, -0.0, -0.0, -0.0, -0.0, 9.83, 0.0, 0.0, 0.0, 0.0, 0.0, 0.0, 0.0, 3.16, 0.0, -15.37, -0.0, 10.75, 7.9, -2.71, -7.44, -8.82, -11.21, -11.28, -9.3, -5.0, -5.0, -5.0, -11.22, -11.22, -10.96, -10.96, -10.79, -10.41, -10.41, -10.15, -10.15, -9.94, -9.94, -9.94, -9.94, -9.71, -9.37, -9.37, -9.37, -9.37, -9.37, -9.37, -8.78, -8.78, -8.78, -7.9, -7.6, -7.6, -7.9, -7.58, -7.58, -7.28, -7.28, -6.93, -6.93, -6.93, -6.54, -6.54, -6.11, -6.36, -6.04, -6.04, -5.86, -5.62, -5.62, -5.09, -5.41, -5.41, -5.41, -4.8, -5.14, -5.14, -4.25, -4.4, -4.78, -4.56, -4.0, -4.44, -4.21, -3.8, -3.8, -3.15, -1.58, -1.58, -1.95, 0.0, 0.0, 0.0, 0.0, -0.0, -0.0, -0.0, -2.49, -3.25, -3.11, -0.0, -0.0, 0.0, 0.0, 0.0, 0.0, -0.0, 0.0, -13.41, -4.66, 0.0, 0.0, -4.56, -17.59, -0.0, -0.0, -5.2, -8.22, -9.67, -11.61, -12.07, -8.22, 11.03, 11.03, 11.03, -11.22, -11.22, -11.22, -10.96, -10.41, -10.41, -10.41, -10.41, -10.15, -9.94, -9.94, -9.94, -9.94, -9.71, -9.37, -9.37, -9.37, -9.37, -9.37, -9.02, -8.78, -8.78, -8.78, -8.52, -7.9, -7.6, -7.6, -7.58, -7.28, -7.28, -7.28, -6.93, -6.93, -6.93, -6.54, -6.54, -6.54, -6.11, -6.11, -6.11, -6.11, -5.62, -5.62, -5.95, -5.41, -5.41, -5.41, -5.76, -5.14, -5.14, -4.92, -4.4, -4.4, -4.56, -4.0, -4.0, -4.21, -4.21, -3.8, -3.15, -3.15, -3.15, -1.67, -2.06, -2.69, 0.0, 0.0, 0.0, -6.32, -1.75, -4.2, -6.2, -3.25, -4.2, -6.64, -6.64, -9.39, 0.0, 0.0, 0.0, -0.0, -13.41, -8.18, -2.72, 0.0, -3.06, -8.8, -16.09, -6.4, -11.99, -11.87, -11.71, -12.35, -12.96, 0.0, 12.07, 12.07, 12.07, -11.22, -11.22, -10.83, -10.83, -10.41, -10.41, -10.41, -10.41, -10.41, -9.94, -9.94, -9.94, -9.94, -9.71, -9.37, -9.37, -9.37, -9.37, -9.37, -9.02, -8.78, -8.78, -8.45, -8.45, -7.9, -7.6, -7.6, -7.27, -7.28, -7.28, -6.93, -6.93, -6.93, -6.93, -6.54, -6.54, -6.54, -6.54, -6.11, -6.11, -6.11, -5.62, -5.95, -5.95, -5.41, -5.41, -5.76, -5.76, -5.14, -5.14, -4.92, -4.4, -4.4, -4.56, -4.56, -4.0, -4.0, -4.21, -3.8, -3.8, -4.37, -3.15, -3.15, -2.06, -2.06, -2.69, -2.83, -4.0, -8.94, -2.83, -2.97, -6.2, -4.6, -7.59, -6.64, -6.95, -9.83, -9.83, 0.0, 0.0, -0.0, -12.96, -7.93, -5.81, -2.32, 0.0, 0.0, -7.2, -12.79, -13.86, -12.52, -12.52, -11.71, -8.85, 5.6, 11.91, 11.91, 11.91, -10.83, -10.83, -10.83, -10.83, -10.68, -10.41, -10.41, -10.41, -10.23, -10.23, -9.94, -9.94, -9.94, -9.59, -9.37, -9.37, -9.37, -9.37, -9.02, -8.78, -8.78, -8.78, -8.45, -8.45, -8.19, -7.9, -7.6, -7.27, -7.28, -7.28, -6.93, -6.93, -6.93, -6.54, -6.54, -6.54, -6.54, -6.54, -6.11, -6.11, -6.11, -5.62, -5.95, -5.95, -5.41, -5.41, -5.76, -5.76, -5.14, -4.92, -4.92, -4.71, -4.4, -4.2, -4.56, -4.34, -4.0, -4.44, -4.44, -3.8, -3.8, -4.37, -3.15, -3.15, -2.06, -2.06, -2.17, -2.83, -4.0, -8.94, -5.21, -5.21, -4.2, -0.0, -6.64, -6.95, -9.83, -9.83, 0.0, 0.0, 0.0, -12.96, -7.69, -5.48, -2.07, 0.0, 2.0, 0.0, 0.0, 0.0, -3.36, -3.25, -2.54, 0.0, 4.65, 12.27, 12.27, 12.27, -10.83, -10.83, -10.83, -10.83, -10.68, -10.41, -10.41, -10.41, -10.23, -10.23, -9.94, -9.94, -9.94, -9.59, -9.37, -9.37, -9.37, -9.37, -9.02, -8.78, -8.78, -8.78, -8.45, -8.45, -8.19, -7.9, -7.6, -7.27, -7.28, -7.28, -6.93, -6.93, -6.93, -6.54, -6.54, -6.54, -6.54, -6.54, -6.11, -6.11, -6.11, -5.62, -5.95, -5.95, -5.41, -5.41, -5.76, -5.76, -5.14, -4.92, -4.92, -4.71, -4.4, -4.2, -4.56, -4.34, -4.0, -4.44, -4.44, -3.8, -3.8, -4.37, -3.15, -3.15, -2.06, -2.06, -2.17, -2.83, -4.0, -8.94, -5.21, -5.21, -4.2, -0.0, -6.64, -6.95, -9.83, -9.83, 0.0, 0.0, 0.0, -12.52, -7.44, -5.31, -2.0, 0.0, 3.6, 4.72, 5.65, 3.9, 4.0, 3.1, 1.96, 2.2, 4.65, 10.8, 10.8, 10.8]}]